Observation data for Happy on 02/14/2018      Previous  Date  Next       Current Mesonet Observations  Soil Data  Daily Summary Page  Observations in Plain Language
KHA2 140600Z 21008KT 06/00 A3023 RMK A01 T00590002  RH  067%=      5-min Rain = 0
KHA2 140601Z 22007KT 06/00 A3023 RMK A01 T00580001  RH  067%=      5-min Rain = 0
KHA2 140602Z 22007KT 06/00 A3023 RMK A01 T00570001  RH  067%=      5-min Rain = 0
KHA2 140603Z 22007KT 06/00 A3023 RMK A01 T00570001  RH  068%=      5-min Rain = 0
KHA2 140604Z 22007KT 06/00 A3023 RMK A01 T00560001  RH  068%=      5-min Rain = 0
KHA2 140605Z 22007KT 06/00 A3023 RMK A01 T00560000  RH  067%=      5-min Rain = 0
KHA2 140606Z 22006KT 06/00 A3023 RMK A01 T005500-0  RH  068%=      5-min Rain = 0
KHA2 140607Z 22006KT 05/M00 A3023 RMK A01 T00541001  RH  068%=      5-min Rain = 0
KHA2 140608Z 22006KT 05/00 A3023 RMK A01 T005300-0  RH  068%=      5-min Rain = 0
KHA2 140609Z 22007KT 05/00 A3023 RMK A01 T005300-0  RH  068%=      5-min Rain = 0
KHA2 140610Z 21007KT 05/00 A3023 RMK A01 T00530000  RH  069%=      5-min Rain = 0
KHA2 140611Z 21007KT 05/00 A3023 RMK A01 T005300-0  RH  069%=      5-min Rain = 0
KHA2 140612Z 21007KT 05/00 A3023 RMK A01 T005300-0  RH  068%=      5-min Rain = 0
KHA2 140613Z 21007KT 05/M00 A3023 RMK A01 T00531001  RH  068%=      5-min Rain = 0
KHA2 140614Z 21007KT 05/M00 A3023 RMK A01 T00521001  RH  069%=      5-min Rain = 0
KHA2 140615Z 21007KT 05/00 A3023 RMK A01 T005200-0  RH  069%=      5-min Rain = 0
KHA2 140616Z 21007KT 05/00 A3022 RMK A01 T005200-0  RH  069%=      5-min Rain = 0
KHA2 140617Z 21008KT 05/00 A3022 RMK A01 T005200-0  RH  069%=      5-min Rain = 0
KHA2 140618Z 21008KT 05/M00 A3022 RMK A01 T00521001  RH  069%=      5-min Rain = 0
KHA2 140619Z 21008KT 05/00 A3022 RMK A01 T00520000  RH  069%=      5-min Rain = 0
KHA2 140620Z 21008KT 05/00 A3022 RMK A01 T00530000  RH  069%=      5-min Rain = 0
KHA2 140621Z 21008KT 05/00 A3022 RMK A01 T00530001  RH  069%=      5-min Rain = 0
KHA2 140622Z 21009KT 05/00 A3022 RMK A01 T00530000  RH  069%=      5-min Rain = 0
KHA2 140623Z 22008KT 05/00 A3022 RMK A01 T00530001  RH  069%=      5-min Rain = 0
KHA2 140624Z 22009KT 05/00 A3022 RMK A01 T00540001  RH  069%=      5-min Rain = 0
KHA2 140625Z 21009KT 06/00 A3022 RMK A01 T00550002  RH  069%=      5-min Rain = 0
KHA2 140626Z 21008KT 06/00 A3022 RMK A01 T00570003  RH  068%=      5-min Rain = 0
KHA2 140627Z 21008KT 06/00 A3022 RMK A01 T00580004  RH  068%=      5-min Rain = 0
KHA2 140628Z 21008KT 06/00 A3022 RMK A01 T00590004  RH  068%=      5-min Rain = 0
KHA2 140629Z 21008KT 06/00 A3022 RMK A01 T00600004  RH  067%=      5-min Rain = 0
KHA2 140630Z 21008KT 06/00 A3022 RMK A01 T00600004  RH  067%=      5-min Rain = 0
KHA2 140631Z 21009KT 06/00 A3022 RMK A01 T00600004  RH  067%=      5-min Rain = 0
KHA2 140632Z 21008KT 06/00 A3022 RMK A01 T00600004  RH  067%=      5-min Rain = 0
KHA2 140633Z 21008KT 06/00 A3022 RMK A01 T00600004  RH  067%=      5-min Rain = 0
KHA2 140634Z 21008KT 06/00 A3022 RMK A01 T00600003  RH  067%=      5-min Rain = 0
KHA2 140635Z 21008KT 06/00 A3022 RMK A01 T00590003  RH  067%=      5-min Rain = 0
KHA2 140636Z 21007KT 06/00 A3022 RMK A01 T00590003  RH  067%=      5-min Rain = 0
KHA2 140637Z 21007KT 06/00 A3022 RMK A01 T00580003  RH  067%=      5-min Rain = 0
KHA2 140638Z 21007KT 06/00 A3022 RMK A01 T00580003  RH  068%=      5-min Rain = 0
KHA2 140639Z 21008KT 06/00 A3022 RMK A01 T00590004  RH  068%=      5-min Rain = 0
KHA2 140640Z 21007KT 06/00 A3022 RMK A01 T00590004  RH  067%=      5-min Rain = 0
KHA2 140641Z 21007KT 06/00 A3022 RMK A01 T00590003  RH  067%=      5-min Rain = 0
KHA2 140642Z 21007KT 06/00 A3022 RMK A01 T00590003  RH  068%=      5-min Rain = 0
KHA2 140643Z 21007KT 06/00 A3022 RMK A01 T00590004  RH  068%=      5-min Rain = 0
KHA2 140644Z 21007KT 06/01 A3022 RMK A01 T00600005  RH  068%=      5-min Rain = 0
KHA2 140645Z 22008KT 06/01 A3022 RMK A01 T00620007  RH  068%=      5-min Rain = 0
KHA2 140646Z 22008KT 06/01 A3022 RMK A01 T00640008  RH  067%=      5-min Rain = 0
KHA2 140647Z 22009KT 07/01 A3022 RMK A01 T00660009  RH  067%=      5-min Rain = 0
KHA2 140648Z 22009KT 07/01 A3022 RMK A01 T00690009  RH  066%=      5-min Rain = 0
KHA2 140649Z 22010KT 07/01 A3022 RMK A01 T00710009  RH  065%=      5-min Rain = 0
KHA2 140650Z 22009KT 07/01 A3022 RMK A01 T00720009  RH  064%=      5-min Rain = 0
KHA2 140651Z 22008KT 07/01 A3022 RMK A01 T00720009  RH  064%=      5-min Rain = 0
KHA2 140652Z 22008KT 07/01 A3022 RMK A01 T00730009  RH  064%=      5-min Rain = 0
KHA2 140653Z 22008KT 07/01 A3022 RMK A01 T00720008  RH  064%=      5-min Rain = 0
KHA2 140654Z 22008KT 07/01 A3021 RMK A01 T00720008  RH  064%=      5-min Rain = 0
KHA2 140655Z 22009KT 07/01 A3021 RMK A01 T00730008  RH  064%=      5-min Rain = 0
KHA2 140656Z 22008KT 07/01 A3021 RMK A01 T00730008  RH  064%=      5-min Rain = 0
KHA2 140657Z 22009KT 07/01 A3021 RMK A01 T00730008  RH  063%=      5-min Rain = 0
KHA2 140658Z 22009KT 07/01 A3021 RMK A01 T00730008  RH  063%=      5-min Rain = 0
KHA2 140659Z 22009KT 07/01 A3021 RMK A01 T00730009  RH  064%=      5-min Rain = 0
KHA2 140700Z 22009KT 07/01 A3021 RMK A01 T00730008  RH  063%=      5-min Rain = 0
KHA2 140701Z 22010KT 07/01 A3021 RMK A01 T00730008  RH  063%=      5-min Rain = 0
KHA2 140702Z 22009KT 07/01 A3021 RMK A01 T00730008  RH  063%=      5-min Rain = 0
KHA2 140703Z 22010KT 07/01 A3021 RMK A01 T00720008  RH  063%=      5-min Rain = 0
KHA2 140704Z 22010KT 07/01 A3021 RMK A01 T00710007  RH  064%=      5-min Rain = 0
KHA2 140705Z 22009KT 07/01 A3021 RMK A01 T00710008  RH  064%=      5-min Rain = 0
KHA2 140706Z 22009KT 07/01 A3021 RMK A01 T00710007  RH  064%=      5-min Rain = 0
KHA2 140707Z 22009KT 07/01 A3021 RMK A01 T00710007  RH  064%=      5-min Rain = 0
KHA2 140708Z 22009KT 07/01 A3021 RMK A01 T00700006  RH  064%=      5-min Rain = 0
KHA2 140709Z 22009KT 07/01 A3021 RMK A01 T00690006  RH  064%=      5-min Rain = 0
KHA2 140710Z 22010KT 07/01 A3021 RMK A01 T00690006  RH  064%=      5-min Rain = 0
KHA2 140711Z 22009KT 07/01 A3022 RMK A01 T00680005  RH  064%=      5-min Rain = 0
KHA2 140712Z 22010KT 07/01 A3021 RMK A01 T00670005  RH  065%=      5-min Rain = 0
KHA2 140713Z 22010KT 07/01 A3022 RMK A01 T00670005  RH  065%=      5-min Rain = 0
KHA2 140714Z 22010KT 07/01 A3022 RMK A01 T00670005  RH  065%=      5-min Rain = 0
KHA2 140715Z 22010KT 07/01 A3022 RMK A01 T00680006  RH  065%=      5-min Rain = 0
KHA2 140716Z 22010KT 07/01 A3022 RMK A01 T00680005  RH  064%=      5-min Rain = 0
KHA2 140717Z 22010KT 07/01 A3022 RMK A01 T00670005  RH  064%=      5-min Rain = 0
KHA2 140718Z 22010KT 07/01 A3022 RMK A01 T00660005  RH  065%=      5-min Rain = 0
KHA2 140719Z 22010KT 07/01 A3022 RMK A01 T00660005  RH  065%=      5-min Rain = 0
KHA2 140720Z 22010KT 07/01 A3022 RMK A01 T00660005  RH  065%=      5-min Rain = 0
KHA2 140721Z 22010KT 07/01 A3022 RMK A01 T00660005  RH  065%=      5-min Rain = 0
KHA2 140722Z 22010KT 07/01 A3021 RMK A01 T00660005  RH  065%=      5-min Rain = 0
KHA2 140723Z 22010KT 07/01 A3021 RMK A01 T00660005  RH  065%=      5-min Rain = 0
KHA2 140724Z 22010KT 07/00 A3021 RMK A01 T00660004  RH  065%=      5-min Rain = 0
KHA2 140725Z 22011KT 07/00 A3021 RMK A01 T00660004  RH  065%=      5-min Rain = 0
KHA2 140726Z 22010KT 07/01 A3021 RMK A01 T00660005  RH  065%=      5-min Rain = 0
KHA2 140727Z 22010KT 07/01 A3021 RMK A01 T00670005  RH  065%=      5-min Rain = 0
KHA2 140728Z 22011KT 07/01 A3021 RMK A01 T00680005  RH  064%=      5-min Rain = 0
KHA2 140729Z 22010KT 07/01 A3021 RMK A01 T00690006  RH  064%=      5-min Rain = 0
KHA2 140730Z 22010KT 07/01 A3021 RMK A01 T00690006  RH  064%=      5-min Rain = 0
KHA2 140731Z 22010KT 07/01 A3021 RMK A01 T00700006  RH  064%=      5-min Rain = 0
KHA2 140732Z 22011KT 07/01 A3021 RMK A01 T00700006  RH  063%=      5-min Rain = 0
KHA2 140733Z 22010KT 07/01 A3021 RMK A01 T00700006  RH  063%=      5-min Rain = 0
KHA2 140734Z 23010KT 07/01 A3021 RMK A01 T00710006  RH  063%=      5-min Rain = 0
KHA2 140735Z 23010KT 07/01 A3021 RMK A01 T00710006  RH  063%=      5-min Rain = 0
KHA2 140736Z 23010KT 07/01 A3021 RMK A01 T00710006  RH  063%=      5-min Rain = 0
KHA2 140737Z 23010KT 07/01 A3021 RMK A01 T00710005  RH  063%=      5-min Rain = 0
KHA2 140738Z 23009KT 07/01 A3022 RMK A01 T00710005  RH  063%=      5-min Rain = 0
KHA2 140739Z 23010KT 07/01 A3022 RMK A01 T00700005  RH  063%=      5-min Rain = 0
KHA2 140740Z 23010KT 07/01 A3022 RMK A01 T00690005  RH  063%=      5-min Rain = 0
KHA2 140741Z 23010KT 07/00 A3022 RMK A01 T00690004  RH  063%=      5-min Rain = 0
KHA2 140742Z 23009KT 07/00 A3022 RMK A01 T00680004  RH  064%=      5-min Rain = 0
KHA2 140743Z 23009KT 07/00 A3022 RMK A01 T00680004  RH  064%=      5-min Rain = 0
KHA2 140744Z 23010KT 07/00 A3022 RMK A01 T00670004  RH  064%=      5-min Rain = 0
KHA2 140745Z 23009KT 07/00 A3022 RMK A01 T00670004  RH  064%=      5-min Rain = 0
KHA2 140746Z 23009KT 07/00 A3021 RMK A01 T00670004  RH  064%=      5-min Rain = 0
KHA2 140747Z 23009KT 07/00 A3021 RMK A01 T00670004  RH  064%=      5-min Rain = 0
KHA2 140748Z 24008KT 07/00 A3021 RMK A01 T00670004  RH  064%=      5-min Rain = 0
KHA2 140749Z 24009KT 07/00 A3021 RMK A01 T00670004  RH  064%=      5-min Rain = 0
KHA2 140750Z 24010KT 07/00 A3021 RMK A01 T00670004  RH  064%=      5-min Rain = 0
KHA2 140751Z 24010KT 07/00 A3021 RMK A01 T00670004  RH  064%=      5-min Rain = 0
KHA2 140752Z 24010KT 07/00 A3021 RMK A01 T00670003  RH  064%=      5-min Rain = 0
KHA2 140753Z 24010KT 07/00 A3021 RMK A01 T00670003  RH  064%=      5-min Rain = 0
KHA2 140754Z 24010KT 07/00 A3021 RMK A01 T00680004  RH  064%=      5-min Rain = 0
KHA2 140755Z 24009KT 07/00 A3021 RMK A01 T00680004  RH  064%=      5-min Rain = 0
KHA2 140756Z 24009KT 07/00 A3021 RMK A01 T00680004  RH  064%=      5-min Rain = 0
KHA2 140757Z 24010KT 07/00 A3021 RMK A01 T00680004  RH  064%=      5-min Rain = 0
KHA2 140758Z 24010KT 07/00 A3021 RMK A01 T00680004  RH  064%=      5-min Rain = 0
KHA2 140759Z 24010KT 07/00 A3021 RMK A01 T00680004  RH  064%=      5-min Rain = 0
KHA2 140800Z 24010KT 07/00 A3021 RMK A01 T00680004  RH  064%=      5-min Rain = 0
KHA2 140801Z 24010KT 07/00 A3021 RMK A01 T00680004  RH  064%=      5-min Rain = 0
KHA2 140802Z 24010KT 07/00 A3021 RMK A01 T00680004  RH  064%=      5-min Rain = 0
KHA2 140803Z 25009KT 07/00 A3021 RMK A01 T00680004  RH  064%=      5-min Rain = 0
KHA2 140804Z 25010KT 07/00 A3021 RMK A01 T00680004  RH  064%=      5-min Rain = 0
KHA2 140805Z 25010KT 07/00 A3021 RMK A01 T00680003  RH  063%=      5-min Rain = 0
KHA2 140806Z 25010KT 07/00 A3021 RMK A01 T00680004  RH  063%=      5-min Rain = 0
KHA2 140807Z 25009KT 07/00 A3021 RMK A01 T00680003  RH  063%=      5-min Rain = 0
KHA2 140808Z 25010KT 07/00 A3021 RMK A01 T00680004  RH  063%=      5-min Rain = 0
KHA2 140809Z 25010KT 07/00 A3021 RMK A01 T00690004  RH  063%=      5-min Rain = 0
KHA2 140810Z 25010KT 07/00 A3021 RMK A01 T00690004  RH  063%=      5-min Rain = 0
KHA2 140811Z 25010KT 07/00 A3021 RMK A01 T00690004  RH  063%=      5-min Rain = 0
KHA2 140812Z 25009KT 07/00 A3021 RMK A01 T00700004  RH  063%=      5-min Rain = 0
KHA2 140813Z 25009KT 07/00 A3021 RMK A01 T00700004  RH  063%=      5-min Rain = 0
KHA2 140814Z 25010KT 07/00 A3021 RMK A01 T00690004  RH  063%=      5-min Rain = 0
KHA2 140815Z 25009KT 07/00 A3021 RMK A01 T00680003  RH  063%=      5-min Rain = 0
KHA2 140816Z 25010KT 07/00 A3021 RMK A01 T00690004  RH  063%=      5-min Rain = 0
KHA2 140817Z 25010KT 07/00 A3021 RMK A01 T00680003  RH  063%=      5-min Rain = 0
KHA2 140818Z 25010KT 07/00 A3021 RMK A01 T00680004  RH  064%=      5-min Rain = 0
KHA2 140819Z 25009KT 07/00 A3021 RMK A01 T00670003  RH  064%=      5-min Rain = 0
KHA2 140820Z 25010KT 07/00 A3021 RMK A01 T00670003  RH  064%=      5-min Rain = 0
KHA2 140821Z 25010KT 07/00 A3021 RMK A01 T00670003  RH  064%=      5-min Rain = 0
KHA2 140822Z 25010KT 07/00 A3021 RMK A01 T00670003  RH  064%=      5-min Rain = 0
KHA2 140823Z 25009KT 07/00 A3021 RMK A01 T00660002  RH  064%=      5-min Rain = 0
KHA2 140824Z 24009KT 07/00 A3021 RMK A01 T00650002  RH  064%=      5-min Rain = 0
KHA2 140825Z 25009KT 06/00 A3021 RMK A01 T00640002  RH  064%=      5-min Rain = 0
KHA2 140826Z 25010KT 06/00 A3021 RMK A01 T00640002  RH  065%=      5-min Rain = 0
KHA2 140827Z 25010KT 06/00 A3021 RMK A01 T00640002  RH  065%=      5-min Rain = 0
KHA2 140828Z 25009KT 06/00 A3021 RMK A01 T00630002  RH  065%=      5-min Rain = 0
KHA2 140829Z 24009KT 06/00 A3021 RMK A01 T00620001  RH  065%=      5-min Rain = 0
KHA2 140830Z 24009KT 06/00 A302 RMK A01 T00610001  RH  065%=      5-min Rain = 0
KHA2 140831Z 24009KT 06/00 A302 RMK A01 T00610001  RH  065%=      5-min Rain = 0
KHA2 140832Z 24009KT 06/00 A302 RMK A01 T00600001  RH  065%=      5-min Rain = 0
KHA2 140833Z 25008KT 06/00 A302 RMK A01 T00600000  RH  066%=      5-min Rain = 0
KHA2 140834Z 25008KT 06/00 A3021 RMK A01 T00600000  RH  066%=      5-min Rain = 0
KHA2 140835Z 25008KT 06/00 A3021 RMK A01 T00590000  RH  066%=      5-min Rain = 0
KHA2 140836Z 24008KT 06/00 A3021 RMK A01 T00590000  RH  066%=      5-min Rain = 0
KHA2 140837Z 24008KT 06/00 A302 RMK A01 T00590000  RH  066%=      5-min Rain = 0
KHA2 140838Z 24008KT 06/00 A302 RMK A01 T00590000  RH  066%=      5-min Rain = 0
KHA2 140839Z 24008KT 06/00 A302 RMK A01 T00590000  RH  066%=      5-min Rain = 0
KHA2 140840Z 24009KT 06/00 A302 RMK A01 T00600000  RH  066%=      5-min Rain = 0
KHA2 140841Z 24008KT 06/00 A302 RMK A01 T00600001  RH  066%=      5-min Rain = 0
KHA2 140842Z 24008KT 06/00 A302 RMK A01 T00610001  RH  065%=      5-min Rain = 0
KHA2 140843Z 24008KT 06/00 A302 RMK A01 T00610001  RH  065%=      5-min Rain = 0
KHA2 140844Z 24008KT 06/00 A302 RMK A01 T00610001  RH  065%=      5-min Rain = 0
KHA2 140845Z 23009KT 06/00 A302 RMK A01 T00610001  RH  065%=      5-min Rain = 0
KHA2 140846Z 23009KT 06/00 A302 RMK A01 T00610001  RH  065%=      5-min Rain = 0
KHA2 140847Z 24009KT 06/00 A302 RMK A01 T00620001  RH  065%=      5-min Rain = 0
KHA2 140848Z 24009KT 06/00 A302 RMK A01 T00620001  RH  065%=      5-min Rain = 0
KHA2 140849Z 24009KT 06/00 A302 RMK A01 T00620001  RH  065%=      5-min Rain = 0
KHA2 140850Z 23009KT 06/00 A302 RMK A01 T00620002  RH  065%=      5-min Rain = 0
KHA2 140851Z 23008KT 06/00 A302 RMK A01 T00620002  RH  065%=      5-min Rain = 0
KHA2 140852Z 23008KT 06/00 A302 RMK A01 T00630001  RH  065%=      5-min Rain = 0
KHA2 140853Z 24007KT 06/00 A302 RMK A01 T00630001  RH  065%=      5-min Rain = 0
KHA2 140854Z 24008KT 06/00 A302 RMK A01 T00630002  RH  065%=      5-min Rain = 0
KHA2 140855Z 24008KT 06/00 A302 RMK A01 T00620001  RH  065%=      5-min Rain = 0
KHA2 140856Z 24008KT 06/00 A302 RMK A01 T00620001  RH  065%=      5-min Rain = 0
KHA2 140857Z 24008KT 06/00 A3019 RMK A01 T00620001  RH  065%=      5-min Rain = 0
KHA2 140858Z 24008KT 06/00 A3019 RMK A01 T00620001  RH  065%=      5-min Rain = 0
KHA2 140859Z 24008KT 06/00 A3019 RMK A01 T00620001  RH  065%=      5-min Rain = 0
KHA2 140900Z 23008KT 06/00 A3019 RMK A01 T00610000  RH  065%=      5-min Rain = 0
KHA2 140901Z 23007KT 06/00 A3019 RMK A01 T00600000  RH  065%=      5-min Rain = 0
KHA2 140902Z 23008KT 06/00 A3019 RMK A01 T00600000  RH  066%=      5-min Rain = 0
KHA2 140903Z 22008KT 06/00 A3019 RMK A01 T00590000  RH  066%=      5-min Rain = 0
KHA2 140904Z 22008KT 06/00 A3019 RMK A01 T00590000  RH  066%=      5-min Rain = 0
KHA2 140905Z 22008KT 06/00 A3019 RMK A01 T005900-0  RH  066%=      5-min Rain = 0
KHA2 140906Z 23008KT 06/00 A3018 RMK A01 T005900-0  RH  066%=      5-min Rain = 0
KHA2 140907Z 22007KT 06/00 A3018 RMK A01 T00590000  RH  066%=      5-min Rain = 0
KHA2 140908Z 23008KT 06/00 A3018 RMK A01 T00590000  RH  066%=      5-min Rain = 0
KHA2 140909Z 23008KT 06/00 A3018 RMK A01 T00600000  RH  066%=      5-min Rain = 0
KHA2 140910Z 23008KT 06/00 A3018 RMK A01 T00600001  RH  065%=      5-min Rain = 0
KHA2 140911Z 23008KT 06/00 A3018 RMK A01 T00610001  RH  065%=      5-min Rain = 0
KHA2 140912Z 23008KT 06/00 A3018 RMK A01 T00610001  RH  065%=      5-min Rain = 0
KHA2 140913Z 23008KT 06/00 A3018 RMK A01 T00610000  RH  065%=      5-min Rain = 0
KHA2 140914Z 23008KT 06/00 A3018 RMK A01 T00610001  RH  065%=      5-min Rain = 0
KHA2 140915Z 23008KT 06/00 A3018 RMK A01 T00610000  RH  065%=      5-min Rain = 0
KHA2 140916Z 23008KT 06/00 A3018 RMK A01 T00610000  RH  065%=      5-min Rain = 0
KHA2 140917Z 23008KT 06/00 A3018 RMK A01 T00610000  RH  065%=      5-min Rain = 0
KHA2 140918Z 23007KT 06/00 A3018 RMK A01 T00610001  RH  065%=      5-min Rain = 0
KHA2 140919Z 23007KT 06/00 A3018 RMK A01 T00610000  RH  065%=      5-min Rain = 0
KHA2 140920Z 22007KT 06/00 A3017 RMK A01 T00610001  RH  065%=      5-min Rain = 0
KHA2 140921Z 23007KT 06/00 A3018 RMK A01 T00610001  RH  065%=      5-min Rain = 0
KHA2 140922Z 23007KT 06/00 A3017 RMK A01 T00610000  RH  065%=      5-min Rain = 0
KHA2 140923Z 24007KT 06/00 A3018 RMK A01 T006000-0  RH  065%=      5-min Rain = 0
KHA2 140924Z 23007KT 06/M00 A3018 RMK A01 T00601001  RH  065%=      5-min Rain = 0
KHA2 140925Z 23007KT 06/M00 A3018 RMK A01 T00591001  RH  065%=      5-min Rain = 0
KHA2 140926Z 23007KT 06/M00 A3018 RMK A01 T00591001  RH  065%=      5-min Rain = 0
KHA2 140927Z 23007KT 06/M00 A3018 RMK A01 T00591001  RH  065%=      5-min Rain = 0
KHA2 140928Z 23007KT 06/M00 A3018 RMK A01 T00581001  RH  066%=      5-min Rain = 0
KHA2 140929Z 23007KT 06/M00 A3018 RMK A01 T00571002  RH  066%=      5-min Rain = 0
KHA2 140930Z 22007KT 06/M00 A3018 RMK A01 T00561002  RH  066%=      5-min Rain = 0
KHA2 140931Z 22007KT 06/M00 A3018 RMK A01 T00561002  RH  066%=      5-min Rain = 0
KHA2 140932Z 23007KT 06/M00 A3018 RMK A01 T00551002  RH  067%=      5-min Rain = 0
KHA2 140933Z 22007KT 06/M00 A3018 RMK A01 T00551002  RH  067%=      5-min Rain = 0
KHA2 140934Z 23007KT 06/M00 A3018 RMK A01 T00551002  RH  067%=      5-min Rain = 0
KHA2 140935Z 22007KT 06/M00 A3018 RMK A01 T00551002  RH  067%=      5-min Rain = 0
KHA2 140936Z 22007KT 06/M00 A3018 RMK A01 T00551002  RH  067%=      5-min Rain = 0
KHA2 140937Z 22007KT 06/M00 A3018 RMK A01 T00551002  RH  067%=      5-min Rain = 0
KHA2 140938Z 22007KT 06/M00 A3018 RMK A01 T00551002  RH  067%=      5-min Rain = 0
KHA2 140939Z 22007KT 06/M00 A3018 RMK A01 T00551002  RH  067%=      5-min Rain = 0
KHA2 140940Z 22007KT 06/M00 A3018 RMK A01 T00551002  RH  067%=      5-min Rain = 0
KHA2 140941Z 22006KT 06/M00 A3018 RMK A01 T00551002  RH  066%=      5-min Rain = 0
KHA2 140942Z 22007KT 06/M00 A3018 RMK A01 T00561002  RH  066%=      5-min Rain = 0
KHA2 140943Z 22006KT 06/M00 A3018 RMK A01 T00561002  RH  066%=      5-min Rain = 0
KHA2 140944Z 22007KT 06/M00 A3018 RMK A01 T00561003  RH  066%=      5-min Rain = 0
KHA2 140945Z 21006KT 06/M00 A3018 RMK A01 T00561003  RH  066%=      5-min Rain = 0
KHA2 140946Z 21007KT 06/M00 A3018 RMK A01 T00551004  RH  066%=      5-min Rain = 0
KHA2 140947Z 22006KT 06/M00 A3018 RMK A01 T00551004  RH  066%=      5-min Rain = 0
KHA2 140948Z 22007KT 05/M00 A3018 RMK A01 T00541004  RH  066%=      5-min Rain = 0
KHA2 140949Z 22007KT 05/M01 A3018 RMK A01 T00531005  RH  066%=      5-min Rain = 0
KHA2 140950Z 22007KT 05/M01 A3018 RMK A01 T00531005  RH  066%=      5-min Rain = 0
KHA2 140951Z 22007KT 05/M01 A3018 RMK A01 T00531005  RH  067%=      5-min Rain = 0
KHA2 140952Z 22008KT 05/M01 A3018 RMK A01 T00531005  RH  066%=      5-min Rain = 0
KHA2 140953Z 22008KT 05/M01 A3018 RMK A01 T00531005  RH  066%=      5-min Rain = 0
KHA2 140954Z 22008KT 05/M00 A3018 RMK A01 T00541004  RH  066%=      5-min Rain = 0
KHA2 140955Z 22008KT 06/M00 A3018 RMK A01 T00551004  RH  066%=      5-min Rain = 0
KHA2 140956Z 22008KT 06/M00 A3018 RMK A01 T00551004  RH  066%=      5-min Rain = 0
KHA2 140957Z 23008KT 06/M00 A3018 RMK A01 T00561003  RH  066%=      5-min Rain = 0
KHA2 140958Z 23008KT 06/M00 A3018 RMK A01 T00571003  RH  065%=      5-min Rain = 0
KHA2 140959Z 23009KT 06/M00 A3018 RMK A01 T00591003  RH  065%=      5-min Rain = 0
KHA2 141000Z 23009KT 06/M00 A3018 RMK A01 T00601003  RH  064%=      5-min Rain = 0
KHA2 141001Z 23008KT 06/M00 A3018 RMK A01 T00601003  RH  064%=      5-min Rain = 0
KHA2 141002Z 23010KT 06/M00 A3017 RMK A01 T00611003  RH  064%=      5-min Rain = 0
KHA2 141003Z 23009KT 06/M00 A3017 RMK A01 T00611003  RH  063%=      5-min Rain = 0
KHA2 141004Z 23009KT 06/M00 A3017 RMK A01 T00611004  RH  063%=      5-min Rain = 0
KHA2 141005Z 23008KT 06/M00 A3017 RMK A01 T00611004  RH  063%=      5-min Rain = 0
KHA2 141006Z 23009KT 06/M00 A3017 RMK A01 T00611004  RH  063%=      5-min Rain = 0
KHA2 141007Z 23009KT 06/M00 A3017 RMK A01 T00611004  RH  063%=      5-min Rain = 0
KHA2 141008Z 23009KT 06/M00 A3017 RMK A01 T00611004  RH  063%=      5-min Rain = 0
KHA2 141009Z 23009KT 06/M00 A3017 RMK A01 T00621004  RH  063%=      5-min Rain = 0
KHA2 141010Z 23009KT 06/M00 A3017 RMK A01 T00621004  RH  063%=      5-min Rain = 0
KHA2 141011Z 23010KT 06/M00 A3017 RMK A01 T00631004  RH  062%=      5-min Rain = 0
KHA2 141012Z 23010KT 06/M00 A3017 RMK A01 T00631004  RH  062%=      5-min Rain = 0
KHA2 141013Z 23010KT 06/M00 A3017 RMK A01 T00631004  RH  062%=      5-min Rain = 0
KHA2 141014Z 23009KT 06/M00 A3017 RMK A01 T00641004  RH  062%=      5-min Rain = 0
KHA2 141015Z 23009KT 06/M00 A3017 RMK A01 T00631004  RH  062%=      5-min Rain = 0
KHA2 141016Z 23009KT 06/M01 A3017 RMK A01 T00631005  RH  062%=      5-min Rain = 0
KHA2 141017Z 23010KT 06/M00 A3017 RMK A01 T00621004  RH  062%=      5-min Rain = 0
KHA2 141018Z 23009KT 06/M00 A3017 RMK A01 T00631004  RH  062%=      5-min Rain = 0
KHA2 141019Z 23009KT 06/M01 A3017 RMK A01 T00631005  RH  062%=      5-min Rain = 0
KHA2 141020Z 23010KT 06/M00 A3017 RMK A01 T00631004  RH  062%=      5-min Rain = 0
KHA2 141021Z 23009KT 06/M01 A3017 RMK A01 T00631005  RH  062%=      5-min Rain = 0
KHA2 141022Z 23009KT 06/M01 A3018 RMK A01 T00621005  RH  062%=      5-min Rain = 0
KHA2 141023Z 23010KT 06/M01 A3017 RMK A01 T00621005  RH  062%=      5-min Rain = 0
KHA2 141024Z 23010KT 06/M01 A3017 RMK A01 T00621005  RH  063%=      5-min Rain = 0
KHA2 141025Z 22009KT 06/M01 A3017 RMK A01 T00621005  RH  062%=      5-min Rain = 0
KHA2 141026Z 23009KT 06/M01 A3017 RMK A01 T00621005  RH  062%=      5-min Rain = 0
KHA2 141027Z 23009KT 06/M01 A3017 RMK A01 T00621005  RH  062%=      5-min Rain = 0
KHA2 141028Z 23009KT 06/M01 A3017 RMK A01 T00621005  RH  062%=      5-min Rain = 0
KHA2 141029Z 23010KT 06/M01 A3017 RMK A01 T00621005  RH  062%=      5-min Rain = 0
KHA2 141030Z 23009KT 06/M01 A3017 RMK A01 T00631005  RH  062%=      5-min Rain = 0
KHA2 141031Z 23009KT 06/M01 A3016 RMK A01 T00621005  RH  062%=      5-min Rain = 0
KHA2 141032Z 23009KT 06/M01 A3016 RMK A01 T00621005  RH  062%=      5-min Rain = 0
KHA2 141033Z 23010KT 06/M01 A3016 RMK A01 T00621006  RH  062%=      5-min Rain = 0
KHA2 141034Z 23010KT 06/M01 A3016 RMK A01 T00621006  RH  062%=      5-min Rain = 0
KHA2 141035Z 23009KT 06/M01 A3016 RMK A01 T00621006  RH  062%=      5-min Rain = 0
KHA2 141036Z 23009KT 06/M01 A3016 RMK A01 T00621006  RH  061%=      5-min Rain = 0
KHA2 141037Z 23009KT 06/M01 A3016 RMK A01 T00631006  RH  061%=      5-min Rain = 0
KHA2 141038Z 23009KT 06/M01 A3016 RMK A01 T00621007  RH  061%=      5-min Rain = 0
KHA2 141039Z 23008KT 06/M01 A3016 RMK A01 T00621007  RH  061%=      5-min Rain = 0
KHA2 141040Z 23009KT 06/M01 A3016 RMK A01 T00621007  RH  061%=      5-min Rain = 0
KHA2 141041Z 24009KT 06/M01 A3016 RMK A01 T00621007  RH  061%=      5-min Rain = 0
KHA2 141042Z 23009KT 06/M01 A3017 RMK A01 T00621007  RH  061%=      5-min Rain = 0
KHA2 141043Z 23009KT 06/M01 A3017 RMK A01 T00621007  RH  061%=      5-min Rain = 0
KHA2 141044Z 23009KT 06/M01 A3017 RMK A01 T00621007  RH  061%=      5-min Rain = 0
KHA2 141045Z 24009KT 06/M01 A3017 RMK A01 T00621007  RH  061%=      5-min Rain = 0
KHA2 141046Z 24009KT 06/M01 A3017 RMK A01 T00611008  RH  061%=      5-min Rain = 0
KHA2 141047Z 24009KT 06/M01 A3017 RMK A01 T00611008  RH  061%=      5-min Rain = 0
KHA2 141048Z 24010KT 06/M01 A3017 RMK A01 T00611008  RH  062%=      5-min Rain = 0
KHA2 141049Z 24010KT 06/M01 A3017 RMK A01 T00601008  RH  062%=      5-min Rain = 0
KHA2 141050Z 24010KT 06/M01 A3017 RMK A01 T00601008  RH  062%=      5-min Rain = 0
KHA2 141051Z 24010KT 06/M01 A3017 RMK A01 T00601008  RH  062%=      5-min Rain = 0
KHA2 141052Z 24010KT 06/M01 A3016 RMK A01 T00601008  RH  062%=      5-min Rain = 0
KHA2 141053Z 24009KT 06/M01 A3016 RMK A01 T00601008  RH  062%=      5-min Rain = 0
KHA2 141054Z 24009KT 06/M01 A3016 RMK A01 T00591008  RH  062%=      5-min Rain = 0
KHA2 141055Z 24009KT 06/M01 A3016 RMK A01 T00591008  RH  062%=      5-min Rain = 0
KHA2 141056Z 24009KT 06/M01 A3016 RMK A01 T00581008  RH  062%=      5-min Rain = 0
KHA2 141057Z 24010KT 06/M01 A3016 RMK A01 T00581008  RH  062%=      5-min Rain = 0
KHA2 141058Z 24010KT 06/M01 A3016 RMK A01 T00591008  RH  062%=      5-min Rain = 0
KHA2 141059Z 24009KT 06/M01 A3016 RMK A01 T00591009  RH  062%=      5-min Rain = 0
KHA2 141100Z 24009KT 06/M01 A3016 RMK A01 T00581009  RH  062%=      5-min Rain = 0
KHA2 141101Z 24008KT 06/M01 A3016 RMK A01 T00571010  RH  062%=      5-min Rain = 0
KHA2 141102Z 24008KT 06/M01 A3016 RMK A01 T00561010  RH  062%=      5-min Rain = 0
KHA2 141103Z 24009KT 06/M01 A3016 RMK A01 T00561009  RH  063%=      5-min Rain = 0
KHA2 141104Z 24009KT 06/M01 A3016 RMK A01 T00561009  RH  063%=      5-min Rain = 0
KHA2 141105Z 24008KT 06/M01 A3016 RMK A01 T00551010  RH  063%=      5-min Rain = 0
KHA2 141106Z 24008KT 05/M01 A3016 RMK A01 T00541011  RH  063%=      5-min Rain = 0
KHA2 141107Z 23007KT 05/M01 A3016 RMK A01 T00541011  RH  063%=      5-min Rain = 0
KHA2 141108Z 23007KT 05/M01 A3016 RMK A01 T00541010  RH  063%=      5-min Rain = 0
KHA2 141109Z 24007KT 05/M01 A3016 RMK A01 T00531011  RH  063%=      5-min Rain = 0
KHA2 141110Z 23008KT 05/M01 A3016 RMK A01 T00531011  RH  063%=      5-min Rain = 0
KHA2 141111Z 23007KT 05/M01 A3016 RMK A01 T00541010  RH  063%=      5-min Rain = 0
KHA2 141112Z 23009KT 05/M01 A3016 RMK A01 T00541011  RH  063%=      5-min Rain = 0
KHA2 141113Z 23009KT 05/M01 A3016 RMK A01 T00541011  RH  063%=      5-min Rain = 0
KHA2 141114Z 24008KT 05/M01 A3016 RMK A01 T00541011  RH  063%=      5-min Rain = 0
KHA2 141115Z 24008KT 05/M01 A3016 RMK A01 T00531011  RH  063%=      5-min Rain = 0
KHA2 141116Z 23008KT 05/M01 A3016 RMK A01 T00531012  RH  063%=      5-min Rain = 0
KHA2 141117Z 23008KT 05/M01 A3016 RMK A01 T00521012  RH  063%=      5-min Rain = 0
KHA2 141118Z 23008KT 05/M01 A3017 RMK A01 T00521012  RH  063%=      5-min Rain = 0
KHA2 141119Z 24008KT 05/M01 A3017 RMK A01 T00521012  RH  063%=      5-min Rain = 0
KHA2 141120Z 23008KT 05/M01 A3017 RMK A01 T00511012  RH  064%=      5-min Rain = 0
KHA2 141121Z 23008KT 05/M01 A3017 RMK A01 T00511012  RH  064%=      5-min Rain = 0
KHA2 141122Z 23009KT 05/M01 A3017 RMK A01 T00511012  RH  064%=      5-min Rain = 0
KHA2 141123Z 23009KT 05/M01 A3017 RMK A01 T00511012  RH  064%=      5-min Rain = 0
KHA2 141124Z 23008KT 05/M01 A3017 RMK A01 T00511013  RH  064%=      5-min Rain = 0
KHA2 141125Z 23010KT 05/M01 A3017 RMK A01 T00501013  RH  064%=      5-min Rain = 0
KHA2 141126Z 23011KT 05/M01 A3017 RMK A01 T00501013  RH  064%=      5-min Rain = 0
KHA2 141127Z 22010KT 05/M01 A3017 RMK A01 T00501013  RH  064%=      5-min Rain = 0
KHA2 141128Z 23011KT 05/M01 A3017 RMK A01 T00501013  RH  064%=      5-min Rain = 0
KHA2 141129Z 23009KT 05/M01 A3017 RMK A01 T00491013  RH  064%=      5-min Rain = 0
KHA2 141130Z 23009KT 05/M01 A3017 RMK A01 T00491013  RH  064%=      5-min Rain = 0
KHA2 141131Z 22009KT 05/M01 A3017 RMK A01 T00491014  RH  064%=      5-min Rain = 0
KHA2 141132Z 23009KT 05/M01 A3017 RMK A01 T00481014  RH  064%=      5-min Rain = 0
KHA2 141133Z 22008KT 05/M01 A3017 RMK A01 T00481013  RH  064%=      5-min Rain = 0
KHA2 141134Z 23009KT 05/M01 A3017 RMK A01 T00481014  RH  064%=      5-min Rain = 0
KHA2 141135Z 22007KT 05/M01 A3017 RMK A01 T00481014  RH  064%=      5-min Rain = 0
KHA2 141136Z 22008KT 05/M01 A3017 RMK A01 T00471014  RH  064%=      5-min Rain = 0
KHA2 141137Z 21008KT 05/M01 A3017 RMK A01 T00461014  RH  065%=      5-min Rain = 0
KHA2 141138Z 21008KT 05/M02 A3017 RMK A01 T00451015  RH  065%=      5-min Rain = 0
KHA2 141139Z 21007KT 04/M02 A3017 RMK A01 T00431016  RH  065%=      5-min Rain = 0
KHA2 141140Z 21007KT 04/M02 A3017 RMK A01 T00421016  RH  066%=      5-min Rain = 0
KHA2 141141Z 21007KT 04/M02 A3017 RMK A01 T00401017  RH  066%=      5-min Rain = 0
KHA2 141142Z 21007KT 04/M02 A3017 RMK A01 T00381018  RH  067%=      5-min Rain = 0
KHA2 141143Z 21007KT 04/M02 A3017 RMK A01 T00371019  RH  067%=      5-min Rain = 0
KHA2 141144Z 21007KT 04/M02 A3017 RMK A01 T00351019  RH  068%=      5-min Rain = 0
KHA2 141145Z 21006KT 03/M02 A3017 RMK A01 T00341019  RH  068%=      5-min Rain = 0
KHA2 141146Z 21007KT 03/M02 A3017 RMK A01 T00331020  RH  068%=      5-min Rain = 0
KHA2 141147Z 21007KT 03/M02 A3017 RMK A01 T00321021  RH  068%=      5-min Rain = 0
KHA2 141148Z 21007KT 03/M02 A3017 RMK A01 T00311021  RH  069%=      5-min Rain = 0
KHA2 141149Z 21007KT 03/M02 A3017 RMK A01 T00301021  RH  069%=      5-min Rain = 0
KHA2 141150Z 21007KT 03/M02 A3017 RMK A01 T00301021  RH  069%=      5-min Rain = 0
KHA2 141151Z 21007KT 03/M02 A3017 RMK A01 T00291022  RH  069%=      5-min Rain = 0
KHA2 141152Z 21007KT 03/M02 A3017 RMK A01 T00281021  RH  070%=      5-min Rain = 0
KHA2 141153Z 21006KT 03/M02 A3017 RMK A01 T00271022  RH  070%=      5-min Rain = 0
KHA2 141154Z 21007KT 03/M02 A3017 RMK A01 T00271022  RH  070%=      5-min Rain = 0
KHA2 141155Z 21007KT 03/M02 A3017 RMK A01 T00271022  RH  070%=      5-min Rain = 0
KHA2 141156Z 22007KT 03/M02 A3017 RMK A01 T00271022  RH  070%=      5-min Rain = 0
KHA2 141157Z 22006KT 03/M02 A3017 RMK A01 T00271022  RH  070%=      5-min Rain = 0
KHA2 141158Z 22006KT 03/M02 A3017 RMK A01 T00271021  RH  070%=      5-min Rain = 0
KHA2 141159Z 22007KT 03/M02 A3017 RMK A01 T00281021  RH  070%=      5-min Rain = 0
KHA2 141200Z 22007KT 03/M02 A3017 RMK A01 T00291021  RH  070%=      5-min Rain = 0
KHA2 141201Z 22007KT 03/M02 A3017 RMK A01 T00291021  RH  070%=      5-min Rain = 0
KHA2 141202Z 22007KT 03/M02 A3017 RMK A01 T00301021  RH  069%=      5-min Rain = 0
KHA2 141203Z 22007KT 03/M02 A3017 RMK A01 T00301021  RH  069%=      5-min Rain = 0
KHA2 141204Z 23007KT 03/M02 A3017 RMK A01 T00311021  RH  069%=      5-min Rain = 0
KHA2 141205Z 23006KT 03/M02 A3017 RMK A01 T00311021  RH  069%=      5-min Rain = 0
KHA2 141206Z 23007KT 03/M02 A3017 RMK A01 T00321020  RH  069%=      5-min Rain = 0
KHA2 141207Z 23007KT 03/M02 A3017 RMK A01 T00331019  RH  069%=      5-min Rain = 0
KHA2 141208Z 23007KT 03/M02 A3017 RMK A01 T00341019  RH  068%=      5-min Rain = 0
KHA2 141209Z 22007KT 04/M02 A3017 RMK A01 T00351018  RH  068%=      5-min Rain = 0
KHA2 141210Z 22007KT 04/M02 A3017 RMK A01 T00371017  RH  068%=      5-min Rain = 0
KHA2 141211Z 22007KT 04/M02 A3017 RMK A01 T00381017  RH  067%=      5-min Rain = 0
KHA2 141212Z 22007KT 04/M02 A3017 RMK A01 T00391017  RH  067%=      5-min Rain = 0
KHA2 141213Z 22008KT 04/M02 A3017 RMK A01 T00391017  RH  067%=      5-min Rain = 0
KHA2 141214Z 21008KT 04/M02 A3017 RMK A01 T00391018  RH  066%=      5-min Rain = 0
KHA2 141215Z 21007KT 04/M02 A3017 RMK A01 T00401017  RH  066%=      5-min Rain = 0
KHA2 141216Z 21006KT 04/M02 A3017 RMK A01 T00401018  RH  066%=      5-min Rain = 0
KHA2 141217Z 21006KT 04/M02 A3017 RMK A01 T00381019  RH  066%=      5-min Rain = 0
KHA2 141218Z 21007KT 04/M02 A3017 RMK A01 T00361021  RH  066%=      5-min Rain = 0
KHA2 141219Z 21007KT 04/M02 A3017 RMK A01 T00351022  RH  067%=      5-min Rain = 0
KHA2 141220Z 21007KT 03/M02 A3017 RMK A01 T00341022  RH  067%=      5-min Rain = 0
KHA2 141221Z 22007KT 03/M02 A3017 RMK A01 T00341021  RH  067%=      5-min Rain = 0
KHA2 141222Z 22007KT 04/M02 A3017 RMK A01 T00351021  RH  067%=      5-min Rain = 0
KHA2 141223Z 22008KT 04/M02 A3017 RMK A01 T00361020  RH  067%=      5-min Rain = 0
KHA2 141224Z 23008KT 04/M02 A3017 RMK A01 T00371019  RH  067%=      5-min Rain = 0
KHA2 141225Z 23008KT 04/M02 A3017 RMK A01 T00391018  RH  066%=      5-min Rain = 0
KHA2 141226Z 23009KT 04/M02 A3017 RMK A01 T00411018  RH  065%=      5-min Rain = 0
KHA2 141227Z 23009KT 04/M02 A3017 RMK A01 T00431018  RH  065%=      5-min Rain = 0
KHA2 141228Z 23009KT 04/M02 A3017 RMK A01 T00441018  RH  064%=      5-min Rain = 0
KHA2 141229Z 23009KT 05/M02 A3017 RMK A01 T00451019  RH  064%=      5-min Rain = 0
KHA2 141230Z 23009KT 05/M02 A3017 RMK A01 T00451019  RH  063%=      5-min Rain = 0
KHA2 141231Z 23009KT 05/M02 A3017 RMK A01 T00461019  RH  063%=      5-min Rain = 0
KHA2 141232Z 23010KT 05/M02 A3017 RMK A01 T00471018  RH  062%=      5-min Rain = 0
KHA2 141233Z 23010KT 05/M02 A3017 RMK A01 T00481019  RH  062%=      5-min Rain = 0
KHA2 141234Z 23010KT 05/M02 A3017 RMK A01 T00491019  RH  061%=      5-min Rain = 0
KHA2 141235Z 23011KT 05/M02 A3017 RMK A01 T00501019  RH  061%=      5-min Rain = 0
KHA2 141236Z 23011KT 05/M02 A3017 RMK A01 T00511019  RH  061%=      5-min Rain = 0
KHA2 141237Z 24011KT 05/M02 A3017 RMK A01 T00521019  RH  060%=      5-min Rain = 0
KHA2 141238Z 24011KT 05/M02 A3017 RMK A01 T00531019  RH  060%=      5-min Rain = 0
KHA2 141239Z 24011KT 05/M02 A3017 RMK A01 T00531020  RH  059%=      5-min Rain = 0
KHA2 141240Z 24011KT 05/M02 A3017 RMK A01 T00531020  RH  059%=      5-min Rain = 0
KHA2 141241Z 24011KT 05/M02 A3017 RMK A01 T00541020  RH  059%=      5-min Rain = 0
KHA2 141242Z 23012KT 05/M02 A3017 RMK A01 T00541020  RH  059%=      5-min Rain = 0
KHA2 141243Z 24010KT 05/M02 A3017 RMK A01 T00541020  RH  059%=      5-min Rain = 0
KHA2 141244Z 23011KT 05/M02 A3017 RMK A01 T00541020  RH  059%=      5-min Rain = 0
KHA2 141245Z 24011KT 05/M02 A3017 RMK A01 T00541020  RH  059%=      5-min Rain = 0
KHA2 141246Z 23011KT 05/M02 A3017 RMK A01 T00541021  RH  059%=      5-min Rain = 0
KHA2 141247Z 23011KT 05/M02 A3017 RMK A01 T00541020  RH  058%=      5-min Rain = 0
KHA2 141248Z 23011KT 05/M02 A3017 RMK A01 T00541021  RH  058%=      5-min Rain = 0
KHA2 141249Z 23011KT 06/M02 A3017 RMK A01 T00551021  RH  058%=      5-min Rain = 0
KHA2 141250Z 23011KT 06/M02 A3017 RMK A01 T00551021  RH  058%=      5-min Rain = 0
KHA2 141251Z 23011KT 06/M02 A3017 RMK A01 T00551021  RH  058%=      5-min Rain = 0
KHA2 141252Z 23010KT 06/M02 A3017 RMK A01 T00551021  RH  058%=      5-min Rain = 0
KHA2 141253Z 23010KT 06/M02 A3017 RMK A01 T00551021  RH  058%=      5-min Rain = 0
KHA2 141254Z 23011KT 06/M02 A3017 RMK A01 T00551021  RH  058%=      5-min Rain = 0
KHA2 141255Z 23010KT 06/M02 A3017 RMK A01 T00551022  RH  058%=      5-min Rain = 0
KHA2 141256Z 24010KT 05/M02 A3017 RMK A01 T00541022  RH  058%=      5-min Rain = 0
KHA2 141257Z 24010KT 05/M02 A3017 RMK A01 T00541022  RH  058%=      5-min Rain = 0
KHA2 141258Z 24011KT 05/M02 A3017 RMK A01 T00541022  RH  058%=      5-min Rain = 0
KHA2 141259Z 24011KT 06/M02 A3017 RMK A01 T00551022  RH  057%=      5-min Rain = 0
KHA2 141300Z 24012KT 06/M02 A3017 RMK A01 T00561023  RH  057%=      5-min Rain = 0
KHA2 141301Z 24011KT 06/M02 A3017 RMK A01 T00561023  RH  057%=      5-min Rain = 0
KHA2 141302Z 24011KT 06/M02 A3017 RMK A01 T00551023  RH  057%=      5-min Rain = 0
KHA2 141303Z 23011KT 06/M02 A3017 RMK A01 T00551023  RH  057%=      5-min Rain = 0
KHA2 141304Z 23012KT 06/M02 A3017 RMK A01 T00551023  RH  057%=      5-min Rain = 0
KHA2 141305Z 24011KT 06/M02 A3017 RMK A01 T00551024  RH  057%=      5-min Rain = 0
KHA2 141306Z 24011KT 06/M02 A3017 RMK A01 T00551024  RH  057%=      5-min Rain = 0
KHA2 141307Z 23011KT 06/M02 A3017 RMK A01 T00551024  RH  057%=      5-min Rain = 0
KHA2 141308Z 24011KT 06/M02 A3017 RMK A01 T00561024  RH  056%=      5-min Rain = 0
KHA2 141309Z 24010KT 06/M02 A3017 RMK A01 T00561024  RH  056%=      5-min Rain = 0
KHA2 141310Z 24010KT 06/M03 A3017 RMK A01 T00551025  RH  056%=      5-min Rain = 0
KHA2 141311Z 24011KT 06/M03 A3017 RMK A01 T00551025  RH  057%=      5-min Rain = 0
KHA2 141312Z 24011KT 06/M03 A3017 RMK A01 T00551025  RH  057%=      5-min Rain = 0
KHA2 141313Z 23010KT 05/M03 A3017 RMK A01 T00541025  RH  057%=      5-min Rain = 0
KHA2 141314Z 23010KT 05/M03 A3016 RMK A01 T00541025  RH  057%=      5-min Rain = 0
KHA2 141315Z 23009KT 05/M03 A3016 RMK A01 T00531025  RH  057%=      5-min Rain = 0
KHA2 141316Z 24009KT 05/M03 A3016 RMK A01 T00521026  RH  057%=      5-min Rain = 0
KHA2 141317Z 24009KT 05/M03 A3016 RMK A01 T00511026  RH  057%=      5-min Rain = 0
KHA2 141318Z 24009KT 05/M03 A3015 RMK A01 T00511026  RH  057%=      5-min Rain = 0
KHA2 141319Z 24010KT 05/M03 A3015 RMK A01 T00511026  RH  057%=      5-min Rain = 0
KHA2 141320Z 24009KT 05/M03 A3015 RMK A01 T00511026  RH  057%=      5-min Rain = 0
KHA2 141321Z 24010KT 05/M03 A3015 RMK A01 T00501027  RH  057%=      5-min Rain = 0
KHA2 141322Z 24010KT 05/M03 A3015 RMK A01 T00501027  RH  057%=      5-min Rain = 0
KHA2 141323Z 24010KT 05/M03 A3016 RMK A01 T00491027  RH  058%=      5-min Rain = 0
KHA2 141324Z 24009KT 05/M03 A3016 RMK A01 T00491027  RH  058%=      5-min Rain = 0
KHA2 141325Z 24009KT 05/M03 A3016 RMK A01 T00481027  RH  058%=      5-min Rain = 0
KHA2 141326Z 24009KT 05/M03 A3016 RMK A01 T00481028  RH  058%=      5-min Rain = 0
KHA2 141327Z 24008KT 05/M03 A3016 RMK A01 T00471028  RH  058%=      5-min Rain = 0
KHA2 141328Z 24009KT 05/M03 A3016 RMK A01 T00461028  RH  059%=      5-min Rain = 0
KHA2 141329Z 24009KT 05/M03 A3016 RMK A01 T00451028  RH  059%=      5-min Rain = 0
KHA2 141330Z 24010KT 05/M03 A3016 RMK A01 T00451028  RH  059%=      5-min Rain = 0
KHA2 141331Z 24010KT 05/M03 A3016 RMK A01 T00461028  RH  059%=      5-min Rain = 0
KHA2 141332Z 24010KT 05/M03 A3017 RMK A01 T00461027  RH  059%=      5-min Rain = 0
KHA2 141333Z 24010KT 05/M03 A3017 RMK A01 T00461027  RH  059%=      5-min Rain = 0
KHA2 141334Z 24009KT 05/M03 A3017 RMK A01 T00461027  RH  059%=      5-min Rain = 0
KHA2 141335Z 23010KT 05/M03 A3017 RMK A01 T00451028  RH  059%=      5-min Rain = 0
KHA2 141336Z 23010KT 04/M03 A3017 RMK A01 T00441028  RH  060%=      5-min Rain = 0
KHA2 141337Z 23010KT 04/M03 A3017 RMK A01 T00441028  RH  060%=      5-min Rain = 0
KHA2 141338Z 23009KT 04/M03 A3017 RMK A01 T00431028  RH  060%=      5-min Rain = 0
KHA2 141339Z 23010KT 04/M03 A3017 RMK A01 T00431028  RH  060%=      5-min Rain = 0
KHA2 141340Z 24010KT 04/M03 A3017 RMK A01 T00431028  RH  060%=      5-min Rain = 0
KHA2 141341Z 24010KT 04/M03 A3017 RMK A01 T00431028  RH  060%=      5-min Rain = 0
KHA2 141342Z 24010KT 04/M03 A3017 RMK A01 T00431028  RH  060%=      5-min Rain = 0
KHA2 141343Z 23010KT 04/M03 A3017 RMK A01 T00431028  RH  060%=      5-min Rain = 0
KHA2 141344Z 23010KT 04/M03 A3017 RMK A01 T00431028  RH  060%=      5-min Rain = 0
KHA2 141345Z 23009KT 04/M03 A3017 RMK A01 T00421028  RH  060%=      5-min Rain = 0
KHA2 141346Z 23008KT 04/M03 A3016 RMK A01 T00421028  RH  060%=      5-min Rain = 0
KHA2 141347Z 24009KT 04/M03 A3016 RMK A01 T00421028  RH  060%=      5-min Rain = 0
KHA2 141348Z 23010KT 04/M03 A3016 RMK A01 T00421028  RH  060%=      5-min Rain = 0
KHA2 141349Z 23009KT 04/M03 A3017 RMK A01 T00421028  RH  060%=      5-min Rain = 0
KHA2 141350Z 24010KT 04/M03 A3017 RMK A01 T00421028  RH  060%=      5-min Rain = 0
KHA2 141351Z 24009KT 04/M03 A3017 RMK A01 T00431028  RH  060%=      5-min Rain = 0
KHA2 141352Z 23009KT 04/M03 A3017 RMK A01 T00421028  RH  060%=      5-min Rain = 0
KHA2 141353Z 24009KT 04/M03 A3017 RMK A01 T00421028  RH  060%=      5-min Rain = 0
KHA2 141354Z 24009KT 04/M03 A3017 RMK A01 T00431028  RH  060%=      5-min Rain = 0
KHA2 141355Z 24009KT 04/M03 A3017 RMK A01 T00421028  RH  060%=      5-min Rain = 0
KHA2 141356Z 24010KT 04/M03 A3017 RMK A01 T00421028  RH  060%=      5-min Rain = 0
KHA2 141357Z 24009KT 04/M03 A3016 RMK A01 T00431028  RH  060%=      5-min Rain = 0
KHA2 141358Z 24009KT 04/M03 A3016 RMK A01 T00421029  RH  060%=      5-min Rain = 0
KHA2 141359Z 24009KT 04/M03 A3017 RMK A01 T00421029  RH  060%=      5-min Rain = 0
KHA2 141400Z 24009KT 04/M03 A3017 RMK A01 T00411029  RH  060%=      5-min Rain = 0
KHA2 141401Z 24008KT 04/M03 A3017 RMK A01 T00421028  RH  060%=      5-min Rain = 0
KHA2 141402Z 24008KT 04/M03 A3017 RMK A01 T00421028  RH  060%=      5-min Rain = 0
KHA2 141403Z 24008KT 04/M03 A3017 RMK A01 T00421029  RH  060%=      5-min Rain = 0
KHA2 141404Z 25008KT 04/M03 A3017 RMK A01 T00421028  RH  060%=      5-min Rain = 0
KHA2 141405Z 25008KT 04/M03 A3016 RMK A01 T00431028  RH  060%=      5-min Rain = 0
KHA2 141406Z 25008KT 04/M03 A3016 RMK A01 T00431028  RH  060%=      5-min Rain = 0
KHA2 141407Z 25008KT 05/M03 A3016 RMK A01 T00451027  RH  059%=      5-min Rain = 0
KHA2 141408Z 25008KT 05/M03 A3016 RMK A01 T00461027  RH  059%=      5-min Rain = 0
KHA2 141409Z 25008KT 05/M03 A3016 RMK A01 T00461027  RH  059%=      5-min Rain = 0
KHA2 141410Z 25008KT 05/M03 A3016 RMK A01 T00481027  RH  058%=      5-min Rain = 0
KHA2 141411Z 25008KT 05/M03 A3016 RMK A01 T00481027  RH  058%=      5-min Rain = 0
KHA2 141412Z 25009KT 05/M03 A3016 RMK A01 T00481027  RH  058%=      5-min Rain = 0
KHA2 141413Z 25009KT 05/M03 A3016 RMK A01 T00491027  RH  058%=      5-min Rain = 0
KHA2 141414Z 25008KT 05/M03 A3016 RMK A01 T00511027  RH  057%=      5-min Rain = 0
KHA2 141415Z 25009KT 05/M03 A3016 RMK A01 T00521027  RH  057%=      5-min Rain = 0
KHA2 141416Z 25009KT 05/M03 A3016 RMK A01 T00531027  RH  056%=      5-min Rain = 0
KHA2 141417Z 25009KT 05/M03 A3016 RMK A01 T00541027  RH  056%=      5-min Rain = 0
KHA2 141418Z 25009KT 06/M03 A3016 RMK A01 T00551027  RH  056%=      5-min Rain = 0
KHA2 141419Z 25009KT 06/M03 A3016 RMK A01 T00561027  RH  055%=      5-min Rain = 0
KHA2 141420Z 25009KT 06/M03 A3016 RMK A01 T00581027  RH  055%=      5-min Rain = 0
KHA2 141421Z 25010KT 06/M03 A3016 RMK A01 T00591027  RH  054%=      5-min Rain = 0
KHA2 141422Z 26010KT 06/M03 A3016 RMK A01 T00621027  RH  053%=      5-min Rain = 0
KHA2 141423Z 25009KT 06/M03 A3016 RMK A01 T00631027  RH  053%=      5-min Rain = 0
KHA2 141424Z 26010KT 06/M03 A3016 RMK A01 T00641027  RH  052%=      5-min Rain = 0
KHA2 141425Z 26010KT 07/M03 A3016 RMK A01 T00661028  RH  051%=      5-min Rain = 0
KHA2 141426Z 26010KT 07/M03 A3016 RMK A01 T00681028  RH  051%=      5-min Rain = 0
KHA2 141427Z 26011KT 07/M03 A3016 RMK A01 T00691028  RH  050%=      5-min Rain = 0
KHA2 141428Z 26010KT 07/M03 A3016 RMK A01 T00701028  RH  050%=      5-min Rain = 0
KHA2 141429Z 26010KT 07/M03 A3016 RMK A01 T00711028  RH  049%=      5-min Rain = 0
KHA2 141430Z 26011KT 07/M03 A3016 RMK A01 T00721028  RH  049%=      5-min Rain = 0
KHA2 141431Z 25010KT 07/M03 A3016 RMK A01 T00731029  RH  048%=      5-min Rain = 0
KHA2 141432Z 25011KT 08/M03 A3016 RMK A01 T00751029  RH  048%=      5-min Rain = 0
KHA2 141433Z 25010KT 08/M03 A3016 RMK A01 T00771029  RH  047%=      5-min Rain = 0
KHA2 141434Z 25011KT 08/M03 A3016 RMK A01 T00781029  RH  046%=      5-min Rain = 0
KHA2 141435Z 24010KT 08/M03 A3016 RMK A01 T00791030  RH  046%=      5-min Rain = 0
KHA2 141436Z 24010KT 08/M03 A3017 RMK A01 T00791029  RH  046%=      5-min Rain = 0
KHA2 141437Z 23009KT 08/M03 A3017 RMK A01 T00781028  RH  047%=      5-min Rain = 0
KHA2 141438Z 24008KT 08/M03 A3017 RMK A01 T00771028  RH  047%=      5-min Rain = 0
KHA2 141439Z 24009KT 08/M03 A3016 RMK A01 T00761028  RH  048%=      5-min Rain = 0
KHA2 141440Z 24008KT 08/M03 A3017 RMK A01 T00761028  RH  048%=      5-min Rain = 0
KHA2 141441Z 24008KT 08/M03 A3017 RMK A01 T00751028  RH  048%=      5-min Rain = 0
KHA2 141442Z 25008KT 08/M03 A3017 RMK A01 T00751028  RH  048%=      5-min Rain = 0
KHA2 141443Z 25007KT 07/M03 A3017 RMK A01 T00741028  RH  048%=      5-min Rain = 0
KHA2 141444Z 24008KT 07/M03 A3017 RMK A01 T00741027  RH  049%=      5-min Rain = 0
KHA2 141445Z 25008KT 07/M03 A3017 RMK A01 T00741028  RH  048%=      5-min Rain = 0
KHA2 141446Z 25008KT 07/M03 A3017 RMK A01 T00741027  RH  048%=      5-min Rain = 0
KHA2 141447Z 25008KT 08/M03 A3017 RMK A01 T00751027  RH  048%=      5-min Rain = 0
KHA2 141448Z 25008KT 08/M03 A3017 RMK A01 T00751027  RH  048%=      5-min Rain = 0
KHA2 141449Z 25009KT 08/M03 A3017 RMK A01 T00761027  RH  048%=      5-min Rain = 0
KHA2 141450Z 26009KT 08/M03 A3017 RMK A01 T00771027  RH  048%=      5-min Rain = 0
KHA2 141451Z 25009KT 08/M03 A3017 RMK A01 T00771028  RH  047%=      5-min Rain = 0
KHA2 141452Z 25009KT 08/M03 A3017 RMK A01 T00781028  RH  047%=      5-min Rain = 0
KHA2 141453Z 25010KT 08/M03 A3017 RMK A01 T00781028  RH  047%=      5-min Rain = 0
KHA2 141454Z 25009KT 08/M03 A3017 RMK A01 T00801028  RH  047%=      5-min Rain = 0
KHA2 141455Z 25009KT 08/M03 A3017 RMK A01 T00801028  RH  046%=      5-min Rain = 0
KHA2 141456Z 26009KT 08/M03 A3017 RMK A01 T00811028  RH  046%=      5-min Rain = 0
KHA2 141457Z 26009KT 08/M03 A3017 RMK A01 T00821027  RH  046%=      5-min Rain = 0
KHA2 141458Z 27008KT 08/M03 A3017 RMK A01 T00841027  RH  046%=      5-min Rain = 0
KHA2 141459Z 26009KT 09/M03 A3017 RMK A01 T00851027  RH  045%=      5-min Rain = 0
KHA2 141500Z 26010KT 09/M03 A3017 RMK A01 T00861028  RH  044%=      5-min Rain = 0
KHA2 141501Z 26010KT 09/M03 A3017 RMK A01 T00871029  RH  044%=      5-min Rain = 0
KHA2 141502Z 26010KT 09/M03 A3017 RMK A01 T00881029  RH  044%=      5-min Rain = 0
KHA2 141503Z 26010KT 09/M03 A3017 RMK A01 T00881029  RH  044%=      5-min Rain = 0
KHA2 141504Z 26010KT 09/M03 A3017 RMK A01 T00881030  RH  043%=      5-min Rain = 0
KHA2 141505Z 26010KT 09/M03 A3017 RMK A01 T00881030  RH  043%=      5-min Rain = 0
KHA2 141506Z 26010KT 09/M03 A3017 RMK A01 T00891029  RH  043%=      5-min Rain = 0
KHA2 141507Z 26009KT 09/M03 A3017 RMK A01 T00901029  RH  043%=      5-min Rain = 0
KHA2 141508Z 26009KT 09/M03 A3017 RMK A01 T00901029  RH  043%=      5-min Rain = 0
KHA2 141509Z 26009KT 09/M03 A3017 RMK A01 T00901029  RH  043%=      5-min Rain = 0
KHA2 141510Z 26010KT 09/M03 A3017 RMK A01 T00921029  RH  042%=      5-min Rain = 0
KHA2 141511Z 26010KT 09/M03 A3017 RMK A01 T00931031  RH  042%=      5-min Rain = 0
KHA2 141512Z 26009KT 09/M03 A3017 RMK A01 T00931031  RH  041%=      5-min Rain = 0
KHA2 141513Z 26010KT 10/M03 A3017 RMK A01 T00951031  RH  041%=      5-min Rain = 0
KHA2 141514Z 26010KT 10/M03 A3017 RMK A01 T00961031  RH  041%=      5-min Rain = 0
KHA2 141515Z 26010KT 10/M03 A3017 RMK A01 T00971032  RH  040%=      5-min Rain = 0
KHA2 141516Z 26010KT 10/M03 A3017 RMK A01 T00981032  RH  040%=      5-min Rain = 0
KHA2 141517Z 26010KT 10/M03 A3017 RMK A01 T01001033  RH  039%=      5-min Rain = 0
KHA2 141518Z 26010KT 10/M03 A3017 RMK A01 T01021033  RH  039%=      5-min Rain = 0
KHA2 141519Z 26010KT 10/M03 A3017 RMK A01 T01031034  RH  038%=      5-min Rain = 0
KHA2 141520Z 27010KT 10/M03 A3017 RMK A01 T01041033  RH  038%=      5-min Rain = 0
KHA2 141521Z 26009KT 11/M03 A3017 RMK A01 T01051033  RH  038%=      5-min Rain = 0
KHA2 141522Z 26010KT 11/M03 A3017 RMK A01 T01071033  RH  037%=      5-min Rain = 0
KHA2 141523Z 26010KT 11/M04 A3017 RMK A01 T01081035  RH  037%=      5-min Rain = 0
KHA2 141524Z 25009KT 11/M03 A3017 RMK A01 T01101034  RH  036%=      5-min Rain = 0
KHA2 141525Z 24008KT 11/M03 A3017 RMK A01 T01111034  RH  036%=      5-min Rain = 0
KHA2 141526Z 23008KT 11/M04 A3017 RMK A01 T01131035  RH  035%=      5-min Rain = 0
KHA2 141527Z 23010KT 12/M04 A3017 RMK A01 T01151036  RH  035%=      5-min Rain = 0
KHA2 141528Z 23007KT 12/M04 A3018 RMK A01 T01161035  RH  035%=      5-min Rain = 0
KHA2 141529Z 21007KT 12/M03 A3018 RMK A01 T01171032  RH  035%=      5-min Rain = 0
KHA2 141530Z 22008KT 12/M03 A3017 RMK A01 T01161032  RH  035%=      5-min Rain = 0
KHA2 141531Z 23008KT 11/M03 A3017 RMK A01 T01141032  RH  036%=      5-min Rain = 0
KHA2 141532Z 22008KT 11/M03 A3017 RMK A01 T01131033  RH  036%=      5-min Rain = 0
KHA2 141533Z 21009KT 11/M03 A3017 RMK A01 T01131033  RH  036%=      5-min Rain = 0
KHA2 141534Z 21007KT 11/M03 A3017 RMK A01 T01131034  RH  036%=      5-min Rain = 0
KHA2 141535Z 21007KT 11/M03 A3017 RMK A01 T01131032  RH  036%=      5-min Rain = 0
KHA2 141536Z 21008KT 11/M03 A3017 RMK A01 T01141031  RH  036%=      5-min Rain = 0
KHA2 141537Z 21008KT 11/M03 A3017 RMK A01 T01141031  RH  036%=      5-min Rain = 0
KHA2 141538Z 22010KT 11/M03 A3017 RMK A01 T01141033  RH  036%=      5-min Rain = 0
KHA2 141539Z 22010KT 11/M03 A3017 RMK A01 T01131034  RH  036%=      5-min Rain = 0
KHA2 141540Z 23010KT 11/M03 A3017 RMK A01 T01121034  RH  036%=      5-min Rain = 0
KHA2 141541Z 23010KT 11/M04 A3017 RMK A01 T01121035  RH  036%=      5-min Rain = 0
KHA2 141542Z 23010KT 11/M04 A3017 RMK A01 T01121036  RH  035%=      5-min Rain = 0
KHA2 141543Z 22008KT 11/M03 A3017 RMK A01 T01121034  RH  036%=      5-min Rain = 0
KHA2 141544Z 21009KT 11/M03 A3018 RMK A01 T01141032  RH  036%=      5-min Rain = 0
KHA2 141545Z 22010KT 12/M03 A3018 RMK A01 T01151033  RH  035%=      5-min Rain = 0
KHA2 141546Z 21011KT 12/M03 A3018 RMK A01 T01161032  RH  035%=      5-min Rain = 0
KHA2 141547Z 20012KT 12/M03 A3018 RMK A01 T01181031  RH  035%=      5-min Rain = 0
KHA2 141548Z 21010KT 12/M03 A3018 RMK A01 T01171032  RH  035%=      5-min Rain = 0
KHA2 141549Z 22008KT 12/M03 A3018 RMK A01 T01151030  RH  036%=      5-min Rain = 0
KHA2 141550Z 21008KT 11/M03 A3018 RMK A01 T01141030  RH  037%=      5-min Rain = 0
KHA2 141551Z 20010KT 11/M03 A3018 RMK A01 T01131029  RH  037%=      5-min Rain = 0
KHA2 141552Z 21008KT 11/M03 A3018 RMK A01 T01141028  RH  037%=      5-min Rain = 0
KHA2 141553Z 21008KT 12/M03 A3018 RMK A01 T01151028  RH  037%=      5-min Rain = 0
KHA2 141554Z 21009KT 12/M03 A3018 RMK A01 T01151027  RH  037%=      5-min Rain = 0
KHA2 141555Z 21009KT 12/M03 A3018 RMK A01 T01161027  RH  037%=      5-min Rain = 0
KHA2 141556Z 21008KT 12/M03 A3018 RMK A01 T01181025  RH  037%=      5-min Rain = 0
KHA2 141557Z 22009KT 12/M03 A3018 RMK A01 T01191025  RH  036%=      5-min Rain = 0
KHA2 141558Z 21010KT 12/M03 A3018 RMK A01 T01191026  RH  036%=      5-min Rain = 0
KHA2 141559Z 22010KT 12/M03 A3018 RMK A01 T01191026  RH  036%=      5-min Rain = 0
KHA2 141600Z 21010KT 12/M03 A3018 RMK A01 T01201027  RH  036%=      5-min Rain = 0
KHA2 141601Z 22011KT 12/M03 A3018 RMK A01 T01211026  RH  036%=      5-min Rain = 0
KHA2 141602Z 22009KT 12/M03 A3018 RMK A01 T01211028  RH  035%=      5-min Rain = 0
KHA2 141603Z 22009KT 12/M03 A3018 RMK A01 T01211027  RH  036%=      5-min Rain = 0
KHA2 141604Z 22009KT 12/M03 A3018 RMK A01 T01211027  RH  036%=      5-min Rain = 0
KHA2 141605Z 22010KT 12/M03 A3018 RMK A01 T01231027  RH  035%=      5-min Rain = 0
KHA2 141606Z 22010KT 12/M03 A3018 RMK A01 T01241028  RH  035%=      5-min Rain = 0
KHA2 141607Z 22009KT 13/M03 A3018 RMK A01 T01261027  RH  034%=      5-min Rain = 0
KHA2 141608Z 22007KT 13/M03 A3018 RMK A01 T01281027  RH  034%=      5-min Rain = 0
KHA2 141609Z 23008KT 13/M03 A3018 RMK A01 T01301027  RH  033%=      5-min Rain = 0
KHA2 141610Z 23007KT 13/M03 A3018 RMK A01 T01321027  RH  033%=      5-min Rain = 0
KHA2 141611Z 23007KT 14/M03 A3018 RMK A01 T01351027  RH  032%=      5-min Rain = 0
KHA2 141612Z 24008KT 14/M03 A3017 RMK A01 T01411027  RH  031%=      5-min Rain = 0
KHA2 141613Z 23010KT 15/M03 A3017 RMK A01 T01451029  RH  030%=      5-min Rain = 0
KHA2 141614Z 23010KT 15/M03 A3017 RMK A01 T01471032  RH  029%=      5-min Rain = 0
KHA2 141615Z 24011KT 15/M03 A3017 RMK A01 T01481032  RH  029%=      5-min Rain = 0
KHA2 141616Z 24012KT 15/M03 A3017 RMK A01 T01501031  RH  028%=      5-min Rain = 0
KHA2 141617Z 24012KT 15/M04 A3017 RMK A01 T01511035  RH  027%=      5-min Rain = 0
KHA2 141618Z 24011KT 15/M04 A3017 RMK A01 T01521035  RH  027%=      5-min Rain = 0
KHA2 141619Z 24011KT 15/M04 A3017 RMK A01 T01541035  RH  027%=      5-min Rain = 0
KHA2 141620Z 23010KT 15/M04 A3017 RMK A01 T01541036  RH  027%=      5-min Rain = 0
KHA2 141621Z 24011KT 16/M04 A3017 RMK A01 T01561035  RH  027%=      5-min Rain = 0
KHA2 141622Z 24010KT 16/M04 A3017 RMK A01 T01581037  RH  026%=      5-min Rain = 0
KHA2 141623Z 23011KT 16/M04 A3017 RMK A01 T01611036  RH  026%=      5-min Rain = 0
KHA2 141624Z 23012KT 16/M04 A3018 RMK A01 T01631037  RH  025%=      5-min Rain = 0
KHA2 141625Z 23011KT 16/M04 A3018 RMK A01 T01641039  RH  025%=      5-min Rain = 0
KHA2 141626Z 23010KT 16/M04 A3018 RMK A01 T01641038  RH  025%=      5-min Rain = 0
KHA2 141627Z 23010KT 17/M04 A3018 RMK A01 T01651037  RH  025%=      5-min Rain = 0
KHA2 141628Z 24010KT 17/M04 A3018 RMK A01 T01661036  RH  025%=      5-min Rain = 0
KHA2 141629Z 25011KT 17/M04 A3018 RMK A01 T01681038  RH  024%=      5-min Rain = 0
KHA2 141630Z 25010KT 17/M04 A3018 RMK A01 T01691042  RH  023%=      5-min Rain = 0
KHA2 141631Z 24011KT 17/M04 A3018 RMK A01 T01691041  RH  023%=      5-min Rain = 0
KHA2 141632Z 25010KT 17/M04 A3018 RMK A01 T01691040  RH  024%=      5-min Rain = 0
KHA2 141633Z 24010KT 17/M04 A3018 RMK A01 T01691039  RH  024%=      5-min Rain = 0
KHA2 141634Z 23012KT 17/M04 A3018 RMK A01 T01701038  RH  024%=      5-min Rain = 0
KHA2 141635Z 24012KT 17/M04 A3017 RMK A01 T01711042  RH  023%=      5-min Rain = 0
KHA2 141636Z 24012KT 17/M04 A3017 RMK A01 T01721042  RH  023%=      5-min Rain = 0
KHA2 141637Z 24014KT 17/M04 A3017 RMK A01 T01731043  RH  023%=      5-min Rain = 0
KHA2 141638Z 24012KT 17/M05 A3017 RMK A01 T01731045  RH  022%=      5-min Rain = 0
KHA2 141639Z 24010KT 17/M04 A3017 RMK A01 T01741043  RH  022%=      5-min Rain = 0
KHA2 141640Z 23011KT 18/M04 A3017 RMK A01 T01761041  RH  023%=      5-min Rain = 0
KHA2 141641Z 24013KT 18/M04 A3017 RMK A01 T01771044  RH  022%=      5-min Rain = 0
KHA2 141642Z 24014KT 18/M04 A3017 RMK A01 T01761044  RH  022%=      5-min Rain = 0
KHA2 141643Z 24014KT 18/M05 A3017 RMK A01 T01751045  RH  022%=      5-min Rain = 0
KHA2 141644Z 24013KT 18/M04 A3017 RMK A01 T01751044  RH  022%=      5-min Rain = 0
KHA2 141645Z 23013KT 18/M05 A3017 RMK A01 T01761046  RH  022%=      5-min Rain = 0
KHA2 141646Z 23014KT 18/M05 A3017 RMK A01 T01751047  RH  022%=      5-min Rain = 0
KHA2 141647Z 23014KT 18/M05 A3017 RMK A01 T01751050  RH  021%=      5-min Rain = 0
KHA2 141648Z 23013KT 18/M05 A3017 RMK A01 T01771047  RH  021%=      5-min Rain = 0
KHA2 141649Z 23012KT 18/M05 A3017 RMK A01 T01791045  RH  021%=      5-min Rain = 0
KHA2 141650Z 22012KT 18/M05 A3017 RMK A01 T01791045  RH  021%=      5-min Rain = 0
KHA2 141651Z 23012KT 18/M05 A3017 RMK A01 T01791045  RH  021%=      5-min Rain = 0
KHA2 141652Z 23015KT 18/M04 A3017 RMK A01 T01791044  RH  021%=      5-min Rain = 0
KHA2 141653Z 22012KT 18/M05 A3017 RMK A01 T01791046  RH  021%=      5-min Rain = 0
KHA2 141654Z 23014KT 18/M05 A3017 RMK A01 T01801045  RH  021%=      5-min Rain = 0
KHA2 141655Z 23014KT 18/M05 A3017 RMK A01 T01821046  RH  021%=      5-min Rain = 0
KHA2 141656Z 23015KT 19/M04 A3017 RMK A01 T01851042  RH  021%=      5-min Rain = 0
KHA2 141657Z 24016KT 19/M05 A3017 RMK A01 T01861047  RH  020%=      5-min Rain = 0
KHA2 141658Z 23017KT 19/M05 A3017 RMK A01 T01861046  RH  020%=      5-min Rain = 0
KHA2 141659Z 24017KT 19/M05 A3017 RMK A01 T01871047  RH  020%=      5-min Rain = 0
KHA2 141700Z 24016KT 19/M05 A3017 RMK A01 T01861047  RH  020%=      5-min Rain = 0
KHA2 141701Z 24018KT 19/M05 A3017 RMK A01 T01861048  RH  020%=      5-min Rain = 0
KHA2 141702Z 24017KT 18/M05 A3017 RMK A01 T01841050  RH  020%=      5-min Rain = 0
KHA2 141703Z 25017KT 18/M05 A3017 RMK A01 T01831048  RH  020%=      5-min Rain = 0
KHA2 141704Z 24017KT 18/M05 A3017 RMK A01 T01831048  RH  020%=      5-min Rain = 0
KHA2 141705Z 24018KT 18/M05 A3017 RMK A01 T01831049  RH  020%=      5-min Rain = 0
KHA2 141706Z 24017KT 18/M05 A3017 RMK A01 T01831047  RH  020%=      5-min Rain = 0
KHA2 141707Z 25017KT 18/M05 A3017 RMK A01 T01831046  RH  021%=      5-min Rain = 0
KHA2 141708Z 24017KT 18/M05 A3017 RMK A01 T01841047  RH  020%=      5-min Rain = 0
KHA2 141709Z 24016KT 19/M05 A3017 RMK A01 T01851045  RH  021%=      5-min Rain = 0
KHA2 141710Z 23015KT 18/M05 A3017 RMK A01 T01841046  RH  021%=      5-min Rain = 0
KHA2 141711Z 24012KT 19/M04 A3017 RMK A01 T01861044  RH  021%=      5-min Rain = 0
KHA2 141712Z 23016KT 19/M04 A3017 RMK A01 T01891044  RH  020%=      5-min Rain = 0
KHA2 141713Z 24014KT 19/M04 A3017 RMK A01 T01911042  RH  020%=      5-min Rain = 0
KHA2 141714Z 23015KT 19/M04 A3017 RMK A01 T01941039  RH  020%=      5-min Rain = 0
KHA2 141715Z 23014KT 20/M04 A3017 RMK A01 T01951043  RH  020%=      5-min Rain = 0
KHA2 141716Z 23014KT 20/M04 A3017 RMK A01 T01951040  RH  020%=      5-min Rain = 0
KHA2 141717Z 23012KT 20/M04 A3017 RMK A01 T01961039  RH  020%=      5-min Rain = 0
KHA2 141718Z 24012KT 20/M04 A3017 RMK A01 T01971039  RH  020%=      5-min Rain = 0
KHA2 141719Z 23014KT 20/M04 A3017 RMK A01 T01971038  RH  020%=      5-min Rain = 0
KHA2 141720Z 23015KT 20/M04 A3017 RMK A01 T01981039  RH  020%=      5-min Rain = 0
KHA2 141721Z 23017KT 20/M04 A3017 RMK A01 T01971042  RH  020%=      5-min Rain = 0
KHA2 141722Z 23016KT 19/M04 A3017 RMK A01 T01941043  RH  020%=      5-min Rain = 0
KHA2 141723Z 23018KT 19/M04 A3017 RMK A01 T01931043  RH  020%=      5-min Rain = 0
KHA2 141724Z 23016KT 19/M04 A3017 RMK A01 T01931043  RH  020%=      5-min Rain = 0
KHA2 141725Z 23015KT 19/M04 A3017 RMK A01 T01941042  RH  020%=      5-min Rain = 0
KHA2 141726Z 23017KT 20/M04 A3016 RMK A01 T01961041  RH  020%=      5-min Rain = 0
KHA2 141727Z 23016KT 19/M04 A3016 RMK A01 T01941044  RH  020%=      5-min Rain = 0
KHA2 141728Z 23013KT 19/M04 A3016 RMK A01 T01931042  RH  020%=      5-min Rain = 0
KHA2 141729Z 23013KT 20/M04 A3016 RMK A01 T01951040  RH  020%=      5-min Rain = 0
KHA2 141730Z 23013KT 20/M04 A3016 RMK A01 T01961040  RH  020%=      5-min Rain = 0
KHA2 141731Z 23018KT 20/M04 A3016 RMK A01 T01981042  RH  019%=      5-min Rain = 0
KHA2 141732Z 23015KT 20/M04 A3016 RMK A01 T01971044  RH  019%=      5-min Rain = 0
KHA2 141733Z 24015KT 20/M04 A3016 RMK A01 T01971042  RH  020%=      5-min Rain = 0
KHA2 141734Z 23014KT 20/M04 A3016 RMK A01 T01981041  RH  020%=      5-min Rain = 0
KHA2 141735Z 23014KT 20/M04 A3016 RMK A01 T02001042  RH  019%=      5-min Rain = 0
KHA2 141736Z 23014KT 20/M04 A3016 RMK A01 T02031039  RH  019%=      5-min Rain = 0
KHA2 141737Z 24015KT 21/M04 A3016 RMK A01 T02051041  RH  019%=      5-min Rain = 0
KHA2 141738Z 23018KT 20/M05 A3016 RMK A01 T02041045  RH  018%=      5-min Rain = 0
KHA2 141739Z 23019KT 20/M05 A3016 RMK A01 T02021047  RH  018%=      5-min Rain = 0
KHA2 141740Z 23014KT 20/M05 A3016 RMK A01 T02021047  RH  018%=      5-min Rain = 0
KHA2 141741Z 23014KT 20/M05 A3016 RMK A01 T02011046  RH  018%=      5-min Rain = 0
KHA2 141742Z 23015KT 20/M05 A3016 RMK A01 T02021045  RH  019%=      5-min Rain = 0
KHA2 141743Z 23016KT 20/M04 A3016 RMK A01 T02031044  RH  019%=      5-min Rain = 0
KHA2 141744Z 22014KT 20/M04 A3016 RMK A01 T02041044  RH  018%=      5-min Rain = 0
KHA2 141745Z 23014G20KT 20/M04 A3016 RMK A01 T02031043  RH  019%=      5-min Rain = 0
KHA2 141746Z 24018KT 21/M05 A3016 RMK A01 T02051045  RH  018%=      5-min Rain = 0
KHA2 141747Z 23016KT 21/M05 A3016 RMK A01 T02061046  RH  018%=      5-min Rain = 0
KHA2 141748Z 23017KT 21/M05 A3016 RMK A01 T02071046  RH  018%=      5-min Rain = 0
KHA2 141749Z 23017KT 21/M05 A3015 RMK A01 T02081047  RH  018%=      5-min Rain = 0
KHA2 141750Z 23017KT 21/M05 A3015 RMK A01 T02091048  RH  017%=      5-min Rain = 0
KHA2 141751Z 23015KT 21/M05 A3015 RMK A01 T02081049  RH  017%=      5-min Rain = 0
KHA2 141752Z 24016G21KT 21/M05 A3015 RMK A01 T02091046  RH  018%=      5-min Rain = 0
KHA2 141753Z 23019KT 21/M05 A3015 RMK A01 T02111047  RH  017%=      5-min Rain = 0
KHA2 141754Z 23019KT 21/M05 A3015 RMK A01 T02111049  RH  017%=      5-min Rain = 0
KHA2 141755Z 24018KT 21/M05 A3015 RMK A01 T02101051  RH  017%=      5-min Rain = 0
KHA2 141756Z 23017KT 21/M05 A3015 RMK A01 T02091050  RH  017%=      5-min Rain = 0
KHA2 141757Z 23017KT 21/M05 A3015 RMK A01 T02091048  RH  017%=      5-min Rain = 0
KHA2 141758Z 24017KT 21/M05 A3015 RMK A01 T02091048  RH  017%=      5-min Rain = 0
KHA2 141759Z 24015KT 21/M05 A3015 RMK A01 T02101049  RH  017%=      5-min Rain = 0
KHA2 141800Z 23016G21KT 21/M05 A3015 RMK A01 T02091048  RH  017%=      5-min Rain = 0
KHA2 141801Z 23016KT 21/M05 A3014 RMK A01 T02091047  RH  017%=      5-min Rain = 0
KHA2 141802Z 23016KT 21/M05 A3015 RMK A01 T02121047  RH  017%=      5-min Rain = 0
KHA2 141803Z 24018KT 21/M05 A3014 RMK A01 T02131050  RH  017%=      5-min Rain = 0
KHA2 141804Z 24021KT 21/M05 A3014 RMK A01 T02121052  RH  016%=      5-min Rain = 0
KHA2 141805Z 24020KT 21/M05 A3014 RMK A01 T02121054  RH  016%=      5-min Rain = 0
KHA2 141806Z 25018KT 21/M06 A3014 RMK A01 T02111056  RH  016%=      5-min Rain = 0
KHA2 141807Z 25016KT 21/M06 A3014 RMK A01 T02111055  RH  016%=      5-min Rain = 0
KHA2 141808Z 24016KT 21/M05 A3014 RMK A01 T02131053  RH  016%=      5-min Rain = 0
KHA2 141809Z 24019KT 22/M05 A3014 RMK A01 T02151053  RH  016%=      5-min Rain = 0
KHA2 141810Z 24019KT 21/M06 A3014 RMK A01 T02141055  RH  016%=      5-min Rain = 0
KHA2 141811Z 24020KT 21/M06 A3014 RMK A01 T02131055  RH  016%=      5-min Rain = 0
KHA2 141812Z 24020KT 21/M06 A3014 RMK A01 T02121056  RH  016%=      5-min Rain = 0
KHA2 141813Z 24017KT 21/M06 A3014 RMK A01 T02121056  RH  016%=      5-min Rain = 0
KHA2 141814Z 24015KT 21/M05 A3014 RMK A01 T02121054  RH  016%=      5-min Rain = 0
KHA2 141815Z 25017KT 22/M05 A3014 RMK A01 T02161053  RH  016%=      5-min Rain = 0
KHA2 141816Z 24018KT 22/M05 A3014 RMK A01 T02171054  RH  016%=      5-min Rain = 0
KHA2 141817Z 24017KT 22/M05 A3014 RMK A01 T02171054  RH  016%=      5-min Rain = 0
KHA2 141818Z 24017KT 22/M05 A3014 RMK A01 T02161054  RH  016%=      5-min Rain = 0
KHA2 141819Z 24019KT 22/M06 A3014 RMK A01 T02151056  RH  016%=      5-min Rain = 0
KHA2 141820Z 24017KT 21/M06 A3013 RMK A01 T02141055  RH  016%=      5-min Rain = 0
KHA2 141821Z 25017KT 22/M05 A3013 RMK A01 T02151052  RH  016%=      5-min Rain = 0
KHA2 141822Z 24020KT 22/M05 A3013 RMK A01 T02171050  RH  016%=      5-min Rain = 0
KHA2 141823Z 24016KT 22/M05 A3013 RMK A01 T02161052  RH  016%=      5-min Rain = 0
KHA2 141824Z 24016KT 22/M05 A3013 RMK A01 T02181049  RH  016%=      5-min Rain = 0
KHA2 141825Z 24018KT 22/M05 A3013 RMK A01 T02201050  RH  016%=      5-min Rain = 0
KHA2 141826Z 24019KT 22/M05 A3013 RMK A01 T02191052  RH  016%=      5-min Rain = 0
KHA2 141827Z 24018G23KT 22/M05 A3013 RMK A01 T02171054  RH  016%=      5-min Rain = 0
KHA2 141828Z 24016KT 22/M05 A3013 RMK A01 T02161051  RH  016%=      5-min Rain = 0
KHA2 141829Z 24019KT 22/M05 A3013 RMK A01 T02181050  RH  016%=      5-min Rain = 0
KHA2 141830Z 24018KT 22/M05 A3013 RMK A01 T02191050  RH  016%=      5-min Rain = 0
KHA2 141831Z 24019G24KT 22/M05 A3013 RMK A01 T02201050  RH  016%=      5-min Rain = 0
KHA2 141832Z 23019KT 22/M05 A3013 RMK A01 T02211053  RH  015%=      5-min Rain = 0
KHA2 141833Z 23016KT 22/M05 A3013 RMK A01 T02201054  RH  015%=      5-min Rain = 0
KHA2 141834Z 23016KT 22/M05 A3013 RMK A01 T02181052  RH  016%=      5-min Rain = 0
KHA2 141835Z 24016KT 22/M05 A3013 RMK A01 T02201053  RH  016%=      5-min Rain = 0
KHA2 141836Z 23017KT 22/M05 A3012 RMK A01 T02211054  RH  015%=      5-min Rain = 0
KHA2 141837Z 25015KT 22/M05 A3012 RMK A01 T02221053  RH  015%=      5-min Rain = 0
KHA2 141838Z 24018KT 22/M05 A3012 RMK A01 T02231054  RH  015%=      5-min Rain = 0
KHA2 141839Z 23017KT 23/M05 A3012 RMK A01 T02261054  RH  015%=      5-min Rain = 0
KHA2 141840Z 23017G23KT 23/M06 A3013 RMK A01 T02271056  RH  015%=      5-min Rain = 0
KHA2 141841Z 23016KT 23/M06 A3012 RMK A01 T02261056  RH  015%=      5-min Rain = 0
KHA2 141842Z 23018KT 23/M06 A3012 RMK A01 T02281055  RH  015%=      5-min Rain = 0
KHA2 141843Z 24021G26KT 23/M06 A3012 RMK A01 T02271057  RH  014%=      5-min Rain = 0
KHA2 141844Z 26019KT 23/M06 A3012 RMK A01 T02251059  RH  014%=      5-min Rain = 0
KHA2 141845Z 25017KT 22/M06 A3012 RMK A01 T02241059  RH  015%=      5-min Rain = 0
KHA2 141846Z 25017KT 22/M06 A3012 RMK A01 T02221058  RH  015%=      5-min Rain = 0
KHA2 141847Z 23016KT 22/M06 A3012 RMK A01 T02241057  RH  015%=      5-min Rain = 0
KHA2 141848Z 23017KT 23/M06 A3012 RMK A01 T02251057  RH  015%=      5-min Rain = 0
KHA2 141849Z 22017KT 23/M06 A3012 RMK A01 T02281055  RH  015%=      5-min Rain = 0
KHA2 141850Z 22019KT 23/M06 A3012 RMK A01 T02301057  RH  014%=      5-min Rain = 0
KHA2 141851Z 22017KT 23/M06 A3012 RMK A01 T02281060  RH  014%=      5-min Rain = 0
KHA2 141852Z 22021G26KT 23/M06 A3012 RMK A01 T02271059  RH  014%=      5-min Rain = 0
KHA2 141853Z 24019KT 23/M06 A3012 RMK A01 T02281057  RH  014%=      5-min Rain = 0
KHA2 141854Z 24018KT 23/M06 A3011 RMK A01 T02281056  RH  014%=      5-min Rain = 0
KHA2 141855Z 22016G23KT 23/M05 A3012 RMK A01 T02301054  RH  015%=      5-min Rain = 0
KHA2 141856Z 22019KT 23/M06 A3012 RMK A01 T02321055  RH  014%=      5-min Rain = 0
KHA2 141857Z 23017KT 23/M06 A3011 RMK A01 T02311055  RH  014%=      5-min Rain = 0
KHA2 141858Z 22019KT 23/M06 A3011 RMK A01 T02311057  RH  014%=      5-min Rain = 0
KHA2 141859Z 22017KT 23/M06 A3011 RMK A01 T02311056  RH  014%=      5-min Rain = 0
KHA2 141900Z 23019G24KT 23/M06 A3011 RMK A01 T02321055  RH  014%=      5-min Rain = 0
KHA2 141901Z 23017G22KT 23/M06 A3011 RMK A01 T02311055  RH  014%=      5-min Rain = 0
KHA2 141902Z 24020KT 23/M06 A3011 RMK A01 T02321055  RH  014%=      5-min Rain = 0
KHA2 141903Z 24020KT 23/M06 A3011 RMK A01 T02311055  RH  014%=      5-min Rain = 0
KHA2 141904Z 23023G28KT 23/M06 A3011 RMK A01 T02311055  RH  014%=      5-min Rain = 0
KHA2 141905Z 23023KT 23/M06 A3011 RMK A01 T02291057  RH  014%=      5-min Rain = 0
KHA2 141906Z 23019KT 23/M06 A3011 RMK A01 T02281056  RH  015%=      5-min Rain = 0
KHA2 141907Z 23018G23KT 23/M06 A3011 RMK A01 T02261056  RH  015%=      5-min Rain = 0
KHA2 141908Z 23023KT 23/M06 A3011 RMK A01 T02271055  RH  015%=      5-min Rain = 0
KHA2 141909Z 23021KT 23/M06 A3011 RMK A01 T02271056  RH  015%=      5-min Rain = 0
KHA2 141910Z 23020KT 23/M06 A3011 RMK A01 T02271056  RH  015%=      5-min Rain = 0
KHA2 141911Z 23017G22KT 23/M06 A3011 RMK A01 T02271056  RH  015%=      5-min Rain = 0
KHA2 141912Z 24019KT 23/M05 A3011 RMK A01 T02271054  RH  015%=      5-min Rain = 0
KHA2 141913Z 23022KT 23/M05 A3011 RMK A01 T02271054  RH  015%=      5-min Rain = 0
KHA2 141914Z 22022KT 23/M06 A301 RMK A01 T02271055  RH  015%=      5-min Rain = 0
KHA2 141915Z 22021KT 23/M06 A301 RMK A01 T02291055  RH  015%=      5-min Rain = 0
KHA2 141916Z 23022KT 23/M05 A301 RMK A01 T02311053  RH  015%=      5-min Rain = 0
KHA2 141917Z 23017KT 23/M05 A301 RMK A01 T02291054  RH  015%=      5-min Rain = 0
KHA2 141918Z 24021KT 23/M05 A301 RMK A01 T02281053  RH  015%=      5-min Rain = 0
KHA2 141919Z 22021KT 23/M05 A301 RMK A01 T02291052  RH  015%=      5-min Rain = 0
KHA2 141920Z 24019KT 23/M05 A301 RMK A01 T02301053  RH  015%=      5-min Rain = 0
KHA2 141921Z 23021KT 23/M05 A301 RMK A01 T02321051  RH  015%=      5-min Rain = 0
KHA2 141922Z 23019G24KT 23/M05 A301 RMK A01 T02311053  RH  015%=      5-min Rain = 0
KHA2 141923Z 22018KT 23/M05 A301 RMK A01 T02281052  RH  015%=      5-min Rain = 0
KHA2 141924Z 22020G25KT 23/M05 A301 RMK A01 T02311050  RH  015%=      5-min Rain = 0
KHA2 141925Z 22023KT 23/M05 A301 RMK A01 T02331050  RH  015%=      5-min Rain = 0
KHA2 141926Z 23024KT 23/M05 A301 RMK A01 T02331051  RH  015%=      5-min Rain = 0
KHA2 141927Z 23020G25KT 23/M05 A301 RMK A01 T02331052  RH  015%=      5-min Rain = 0
KHA2 141928Z 24019KT 23/M05 A301 RMK A01 T02321050  RH  015%=      5-min Rain = 0
KHA2 141929Z 23017KT 23/M05 A301 RMK A01 T02331049  RH  015%=      5-min Rain = 0
KHA2 141930Z 24018KT 23/M05 A301 RMK A01 T02311050  RH  015%=      5-min Rain = 0
KHA2 141931Z 23019KT 23/M05 A301 RMK A01 T02291051  RH  015%=      5-min Rain = 0
KHA2 141932Z 23020KT 23/M05 A3009 RMK A01 T02291049  RH  015%=      5-min Rain = 0
KHA2 141933Z 23018KT 23/M05 A3009 RMK A01 T02301049  RH  015%=      5-min Rain = 0
KHA2 141934Z 23017KT 23/M05 A3009 RMK A01 T02311049  RH  015%=      5-min Rain = 0
KHA2 141935Z 22018G26KT 23/M05 A3009 RMK A01 T02321048  RH  015%=      5-min Rain = 0
KHA2 141936Z 22022KT 23/M05 A3009 RMK A01 T02341050  RH  015%=      5-min Rain = 0
KHA2 141937Z 22019G24KT 23/M05 A3009 RMK A01 T02321051  RH  015%=      5-min Rain = 0
KHA2 141938Z 22021G26KT 23/M05 A3009 RMK A01 T02331051  RH  015%=      5-min Rain = 0
KHA2 141939Z 22022G27KT 24/M05 A3008 RMK A01 T02361053  RH  014%=      5-min Rain = 0
KHA2 141940Z 23023KT 24/M05 A3008 RMK A01 T02361053  RH  014%=      5-min Rain = 0
KHA2 141941Z 24022KT 24/M05 A3008 RMK A01 T02351052  RH  014%=      5-min Rain = 0
KHA2 141942Z 23019KT 24/M05 A3008 RMK A01 T02371050  RH  014%=      5-min Rain = 0
KHA2 141943Z 23024KT 24/M05 A3008 RMK A01 T02381051  RH  014%=      5-min Rain = 0
KHA2 141944Z 23021G26KT 24/M05 A3008 RMK A01 T02361052  RH  014%=      5-min Rain = 0
KHA2 141945Z 23018KT 24/M05 A3008 RMK A01 T02351051  RH  015%=      5-min Rain = 0
KHA2 141946Z 22021KT 24/M05 A3008 RMK A01 T02371049  RH  015%=      5-min Rain = 0
KHA2 141947Z 22017KT 23/M05 A3008 RMK A01 T02341051  RH  015%=      5-min Rain = 0
KHA2 141948Z 22017KT 23/M05 A3008 RMK A01 T02331050  RH  015%=      5-min Rain = 0
KHA2 141949Z 24017KT 23/M05 A3008 RMK A01 T02331049  RH  015%=      5-min Rain = 0
KHA2 141950Z 24016KT 23/M05 A3008 RMK A01 T02341049  RH  015%=      5-min Rain = 0
KHA2 141951Z 24019KT 24/M05 A3008 RMK A01 T02361049  RH  015%=      5-min Rain = 0
KHA2 141952Z 24020G26KT 24/M05 A3008 RMK A01 T02371049  RH  014%=      5-min Rain = 0
KHA2 141953Z 24019G26KT 24/M05 A3008 RMK A01 T02381052  RH  014%=      5-min Rain = 0
KHA2 141954Z 25019G26KT 24/M06 A3007 RMK A01 T02371055  RH  014%=      5-min Rain = 0
KHA2 141955Z 23024G29KT 24/M05 A3007 RMK A01 T02381054  RH  014%=      5-min Rain = 0
KHA2 141956Z 23022KT 24/M06 A3007 RMK A01 T02401055  RH  014%=      5-min Rain = 0
KHA2 141957Z 24023KT 24/M06 A3007 RMK A01 T02391055  RH  014%=      5-min Rain = 0
KHA2 141958Z 24022KT 24/M06 A3007 RMK A01 T02391056  RH  014%=      5-min Rain = 0
KHA2 141959Z 23020KT 24/M06 A3007 RMK A01 T02401055  RH  014%=      5-min Rain = 0
KHA2 142000Z 24022KT 24/M05 A3007 RMK A01 T02421054  RH  014%=      5-min Rain = 0
KHA2 142001Z 23021KT 24/M05 A3007 RMK A01 T02431053  RH  014%=      5-min Rain = 0
KHA2 142002Z 23021KT 24/M06 A3007 RMK A01 T02391055  RH  014%=      5-min Rain = 0
KHA2 142003Z 23019KT 24/M05 A3007 RMK A01 T02361054  RH  014%=      5-min Rain = 0
KHA2 142004Z 23018G23KT 24/M05 A3007 RMK A01 T02351052  RH  014%=      5-min Rain = 0
KHA2 142005Z 23014KT 24/M05 A3007 RMK A01 T02371051  RH  014%=      5-min Rain = 0
KHA2 142006Z 23022G27KT 24/M05 A3007 RMK A01 T02411049  RH  014%=      5-min Rain = 0
KHA2 142007Z 24022KT 24/M05 A3006 RMK A01 T02421053  RH  014%=      5-min Rain = 0
KHA2 142008Z 24017KT 24/M05 A3006 RMK A01 T02411052  RH  014%=      5-min Rain = 0
KHA2 142009Z 24024G30KT 24/M05 A3006 RMK A01 T02441051  RH  014%=      5-min Rain = 0
KHA2 142010Z 24023KT 24/M05 A3006 RMK A01 T02431053  RH  014%=      5-min Rain = 0
KHA2 142011Z 24023KT 24/M05 A3006 RMK A01 T02411053  RH  014%=      5-min Rain = 0
KHA2 142012Z 24024KT 24/M05 A3006 RMK A01 T02421051  RH  014%=      5-min Rain = 0
KHA2 142013Z 24023KT 24/M05 A3006 RMK A01 T02411051  RH  014%=      5-min Rain = 0
KHA2 142014Z 23021G27KT 24/M05 A3006 RMK A01 T02421051  RH  014%=      5-min Rain = 0
KHA2 142015Z 23021KT 24/M05 A3006 RMK A01 T02421051  RH  014%=      5-min Rain = 0
KHA2 142016Z 23017KT 24/M05 A3006 RMK A01 T02411051  RH  014%=      5-min Rain = 0
KHA2 142017Z 23019KT 24/M05 A3006 RMK A01 T02421050  RH  014%=      5-min Rain = 0
KHA2 142018Z 24019G24KT 24/M05 A3006 RMK A01 T02431050  RH  014%=      5-min Rain = 0
KHA2 142019Z 24023KT 25/M05 A3006 RMK A01 T02451048  RH  014%=      5-min Rain = 0
KHA2 142020Z 25019KT 24/M05 A3006 RMK A01 T02431050  RH  014%=      5-min Rain = 0
KHA2 142021Z 24017KT 24/M05 A3006 RMK A01 T02411050  RH  014%=      5-min Rain = 0
KHA2 142022Z 24018KT 24/M05 A3006 RMK A01 T02421049  RH  014%=      5-min Rain = 0
KHA2 142023Z 25019G26KT 24/M05 A3006 RMK A01 T02401049  RH  014%=      5-min Rain = 0
KHA2 142024Z 24021KT 24/M05 A3005 RMK A01 T02411049  RH  014%=      5-min Rain = 0
KHA2 142025Z 23018KT 24/M05 A3006 RMK A01 T02391050  RH  014%=      5-min Rain = 0
KHA2 142026Z 23019KT 24/M05 A3005 RMK A01 T02391049  RH  014%=      5-min Rain = 0
KHA2 142027Z 23017KT 24/M05 A3006 RMK A01 T02391048  RH  014%=      5-min Rain = 0
KHA2 142028Z 24017G24KT 24/M05 A3005 RMK A01 T02411047  RH  014%=      5-min Rain = 0
KHA2 142029Z 24019KT 24/M05 A3005 RMK A01 T02441046  RH  014%=      5-min Rain = 0
KHA2 142030Z 24018G24KT 25/M05 A3005 RMK A01 T02451046  RH  014%=      5-min Rain = 0
KHA2 142031Z 24019KT 25/M05 A3005 RMK A01 T02461046  RH  014%=      5-min Rain = 0
KHA2 142032Z 23020KT 25/M05 A3005 RMK A01 T02451047  RH  014%=      5-min Rain = 0
KHA2 142033Z 24017KT 25/M05 A3005 RMK A01 T02461045  RH  014%=      5-min Rain = 0
KHA2 142034Z 24018KT 25/M05 A3005 RMK A01 T02471046  RH  014%=      5-min Rain = 0
KHA2 142035Z 24017KT 25/M05 A3005 RMK A01 T02451047  RH  014%=      5-min Rain = 0
KHA2 142036Z 23019KT 24/M05 A3005 RMK A01 T02441046  RH  014%=      5-min Rain = 0
KHA2 142037Z 24018KT 25/M05 A3005 RMK A01 T02451046  RH  014%=      5-min Rain = 0
KHA2 142038Z 22014KT 24/M05 A3005 RMK A01 T02441045  RH  014%=      5-min Rain = 0
KHA2 142039Z 22016KT 24/M05 A3005 RMK A01 T02441047  RH  014%=      5-min Rain = 0
KHA2 142040Z 22015KT 24/M05 A3004 RMK A01 T02411048  RH  014%=      5-min Rain = 0
KHA2 142041Z 22013KT 24/M05 A3004 RMK A01 T02401047  RH  014%=      5-min Rain = 0
KHA2 142042Z 23013KT 24/M05 A3004 RMK A01 T02411047  RH  014%=      5-min Rain = 0
KHA2 142043Z 24011KT 24/M05 A3004 RMK A01 T02431045  RH  014%=      5-min Rain = 0
KHA2 142044Z 24015KT 25/M04 A3004 RMK A01 T02481042  RH  014%=      5-min Rain = 0
KHA2 142045Z 23017KT 25/M05 A3004 RMK A01 T02501045  RH  014%=      5-min Rain = 0
KHA2 142046Z 23018KT 25/M05 A3004 RMK A01 T02491046  RH  014%=      5-min Rain = 0
KHA2 142047Z 24015KT 25/M05 A3004 RMK A01 T02471048  RH  014%=      5-min Rain = 0
KHA2 142048Z 24015KT 25/M05 A3004 RMK A01 T02471046  RH  014%=      5-min Rain = 0
KHA2 142049Z 24016G21KT 25/M05 A3004 RMK A01 T02481046  RH  014%=      5-min Rain = 0
KHA2 142050Z 25019G24KT 25/M05 A3003 RMK A01 T02491048  RH  014%=      5-min Rain = 0
KHA2 142051Z 26020KT 25/M05 A3003 RMK A01 T02511048  RH  013%=      5-min Rain = 0
KHA2 142052Z 24020G27KT 25/M05 A3003 RMK A01 T02521049  RH  013%=      5-min Rain = 0
KHA2 142053Z 25022KT 25/M05 A3003 RMK A01 T02521049  RH  013%=      5-min Rain = 0
KHA2 142054Z 25022KT 25/M05 A3003 RMK A01 T02521049  RH  013%=      5-min Rain = 0
KHA2 142055Z 24020KT 25/M05 A3003 RMK A01 T02531049  RH  013%=      5-min Rain = 0
KHA2 142056Z 23020KT 25/M05 A3003 RMK A01 T02521051  RH  013%=      5-min Rain = 0
KHA2 142057Z 22019KT 25/M05 A3003 RMK A01 T02511050  RH  013%=      5-min Rain = 0
KHA2 142058Z 22019KT 25/M05 A3003 RMK A01 T02521050  RH  013%=      5-min Rain = 0
KHA2 142059Z 24016KT 25/M05 A3003 RMK A01 T02521049  RH  013%=      5-min Rain = 0
KHA2 142100Z 25020G25KT 25/M05 A3003 RMK A01 T02541049  RH  013%=      5-min Rain = 0
KHA2 142101Z 24017KT 25/M05 A3003 RMK A01 T02521050  RH  013%=      5-min Rain = 0
KHA2 142102Z 24016KT 25/M05 A3003 RMK A01 T02511050  RH  013%=      5-min Rain = 0
KHA2 142103Z 23017KT 25/M05 A3003 RMK A01 T02541048  RH  013%=      5-min Rain = 0
KHA2 142104Z 23019KT 26/M05 A3003 RMK A01 T02571050  RH  013%=      5-min Rain = 0
KHA2 142105Z 24019KT 26/M05 A3003 RMK A01 T02561052  RH  013%=      5-min Rain = 0
KHA2 142106Z 24023KT 26/M05 A3003 RMK A01 T02551051  RH  013%=      5-min Rain = 0
KHA2 142107Z 24021KT 25/M05 A3003 RMK A01 T02541052  RH  013%=      5-min Rain = 0
KHA2 142108Z 23016G21KT 25/M05 A3003 RMK A01 T02521053  RH  013%=      5-min Rain = 0
KHA2 142109Z 24018KT 25/M05 A3003 RMK A01 T02521052  RH  013%=      5-min Rain = 0
KHA2 142110Z 24018KT 25/M05 A3002 RMK A01 T02521051  RH  013%=      5-min Rain = 0
KHA2 142111Z 24019G25KT 25/M05 A3002 RMK A01 T02521051  RH  013%=      5-min Rain = 0
KHA2 142112Z 25020KT 25/M05 A3002 RMK A01 T02531052  RH  013%=      5-min Rain = 0
KHA2 142113Z 25020G25KT 25/M05 A3002 RMK A01 T02521052  RH  013%=      5-min Rain = 0
KHA2 142114Z 25020KT 25/M05 A3002 RMK A01 T02501053  RH  013%=      5-min Rain = 0
KHA2 142115Z 24017KT 25/M05 A3002 RMK A01 T02481053  RH  013%=      5-min Rain = 0
KHA2 142116Z 24014KT 25/M05 A3002 RMK A01 T02491052  RH  013%=      5-min Rain = 0
KHA2 142117Z 23015KT 25/M05 A3002 RMK A01 T02501052  RH  013%=      5-min Rain = 0
KHA2 142118Z 24013KT 25/M05 A3002 RMK A01 T02501052  RH  013%=      5-min Rain = 0
KHA2 142119Z 22015G21KT 25/M05 A3002 RMK A01 T02511051  RH  013%=      5-min Rain = 0
KHA2 142120Z 22015KT 25/M05 A3002 RMK A01 T02541050  RH  013%=      5-min Rain = 0
KHA2 142121Z 24015KT 26/M05 A3002 RMK A01 T02561050  RH  013%=      5-min Rain = 0
KHA2 142122Z 24016G22KT 26/M05 A3002 RMK A01 T02551051  RH  013%=      5-min Rain = 0
KHA2 142123Z 24019G25KT 26/M05 A3002 RMK A01 T02551051  RH  013%=      5-min Rain = 0
KHA2 142124Z 24016G22KT 26/M05 A3002 RMK A01 T02561050  RH  013%=      5-min Rain = 0
KHA2 142125Z 24019KT 26/M05 A3002 RMK A01 T02561050  RH  013%=      5-min Rain = 0
KHA2 142126Z 24016KT 26/M05 A3002 RMK A01 T02551050  RH  013%=      5-min Rain = 0
KHA2 142127Z 25023G29KT 26/M05 A3001 RMK A01 T02561050  RH  013%=      5-min Rain = 0
KHA2 142128Z 24020KT 26/M05 A3001 RMK A01 T02551051  RH  013%=      5-min Rain = 0
KHA2 142129Z 23019KT 26/M05 A3001 RMK A01 T02551050  RH  013%=      5-min Rain = 0
KHA2 142130Z 24020KT 26/M05 A3001 RMK A01 T02551051  RH  013%=      5-min Rain = 0
KHA2 142131Z 24018G25KT 26/M05 A3001 RMK A01 T02551051  RH  013%=      5-min Rain = 0
KHA2 142132Z 24021KT 26/M05 A3001 RMK A01 T02561052  RH  013%=      5-min Rain = 0
KHA2 142133Z 24017KT 25/M05 A3001 RMK A01 T02541053  RH  013%=      5-min Rain = 0
KHA2 142134Z 24016KT 25/M05 A3001 RMK A01 T02531052  RH  013%=      5-min Rain = 0
KHA2 142135Z 24016KT 26/M05 A3001 RMK A01 T02551051  RH  013%=      5-min Rain = 0
KHA2 142136Z 24015KT 26/M05 A3001 RMK A01 T02561051  RH  013%=      5-min Rain = 0
KHA2 142137Z 24020KT 26/M05 A3001 RMK A01 T02571051  RH  013%=      5-min Rain = 0
KHA2 142138Z 24021KT 26/M05 A3001 RMK A01 T02561052  RH  013%=      5-min Rain = 0
KHA2 142139Z 24020KT 26/M05 A3001 RMK A01 T02551053  RH  013%=      5-min Rain = 0
KHA2 142140Z 24018KT 26/M05 A3001 RMK A01 T02551052  RH  013%=      5-min Rain = 0
KHA2 142141Z 23018G23KT 26/M05 A3001 RMK A01 T02571051  RH  013%=      5-min Rain = 0
KHA2 142142Z 25020G25KT 26/M05 A3001 RMK A01 T02571050  RH  013%=      5-min Rain = 0
KHA2 142143Z 24020KT 26/M05 A3001 RMK A01 T02571051  RH  013%=      5-min Rain = 0
KHA2 142144Z 24017KT 26/M05 A3001 RMK A01 T02571050  RH  013%=      5-min Rain = 0
KHA2 142145Z 24020KT 26/M05 A3001 RMK A01 T02591050  RH  013%=      5-min Rain = 0
KHA2 142146Z 24020KT 26/M05 A3001 RMK A01 T02571052  RH  013%=      5-min Rain = 0
KHA2 142147Z 25021KT 26/M05 A3001 RMK A01 T02571051  RH  013%=      5-min Rain = 0
KHA2 142148Z 25021KT 26/M05 A3001 RMK A01 T02561051  RH  013%=      5-min Rain = 0
KHA2 142149Z 25021G26KT 26/M05 A3001 RMK A01 T02561051  RH  013%=      5-min Rain = 0
KHA2 142150Z 25019G25KT 26/M05 A3001 RMK A01 T02551052  RH  013%=      5-min Rain = 0
KHA2 142151Z 24018G24KT 26/M05 A3001 RMK A01 T02551050  RH  013%=      5-min Rain = 0
KHA2 142152Z 24017G23KT 26/M05 A3001 RMK A01 T02561049  RH  013%=      5-min Rain = 0
KHA2 142153Z 25018KT 26/M05 A3001 RMK A01 T02571050  RH  013%=      5-min Rain = 0
KHA2 142154Z 25018KT 26/M05 A3001 RMK A01 T02571050  RH  013%=      5-min Rain = 0
KHA2 142155Z 24023KT 26/M05 A3001 RMK A01 T02571050  RH  013%=      5-min Rain = 0
KHA2 142156Z 25025KT 26/M05 A30 RMK A01 T02561051  RH  013%=      5-min Rain = 0
KHA2 142157Z 25025G30KT 26/M05 A3001 RMK A01 T02551051  RH  013%=      5-min Rain = 0
KHA2 142158Z 25023G28KT 25/M05 A3001 RMK A01 T02541050  RH  013%=      5-min Rain = 0
KHA2 142159Z 24018KT 25/M05 A3001 RMK A01 T02541050  RH  013%=      5-min Rain = 0
KHA2 142200Z 24019KT 26/M05 A3001 RMK A01 T02551050  RH  013%=      5-min Rain = 0
KHA2 142201Z 25022G28KT 26/M05 A3001 RMK A01 T02561050  RH  013%=      5-min Rain = 0
KHA2 142202Z 25022KT 26/M05 A3001 RMK A01 T02551050  RH  013%=      5-min Rain = 0
KHA2 142203Z 25020KT 25/M05 A3001 RMK A01 T02531050  RH  013%=      5-min Rain = 0
KHA2 142204Z 24019KT 25/M05 A3001 RMK A01 T02521049  RH  013%=      5-min Rain = 0
KHA2 142205Z 24018KT 25/M05 A3001 RMK A01 T02531049  RH  013%=      5-min Rain = 0
KHA2 142206Z 24017KT 25/M05 A3001 RMK A01 T02531050  RH  013%=      5-min Rain = 0
KHA2 142207Z 24018G23KT 25/M05 A3001 RMK A01 T02531051  RH  013%=      5-min Rain = 0
KHA2 142208Z 25021G26KT 25/M05 A30 RMK A01 T02541048  RH  013%=      5-min Rain = 0
KHA2 142209Z 25021KT 26/M05 A30 RMK A01 T02551047  RH  013%=      5-min Rain = 0
KHA2 142210Z 25020KT 25/M05 A30 RMK A01 T02541048  RH  013%=      5-min Rain = 0
KHA2 142211Z 25021G27KT 25/M05 A30 RMK A01 T02531048  RH  013%=      5-min Rain = 0
KHA2 142212Z 25021G26KT 25/M05 A30 RMK A01 T02521049  RH  013%=      5-min Rain = 0
KHA2 142213Z 26019KT 25/M05 A30 RMK A01 T02521047  RH  013%=      5-min Rain = 0
KHA2 142214Z 25016KT 25/M05 A30 RMK A01 T02521047  RH  013%=      5-min Rain = 0
KHA2 142215Z 26019KT 25/M05 A30 RMK A01 T02541045  RH  013%=      5-min Rain = 0
KHA2 142216Z 26020KT 25/M05 A30 RMK A01 T02541048  RH  013%=      5-min Rain = 0
KHA2 142217Z 26018KT 25/M05 A30 RMK A01 T02531049  RH  013%=      5-min Rain = 0
KHA2 142218Z 25017KT 25/M05 A30 RMK A01 T02521048  RH  013%=      5-min Rain = 0
KHA2 142219Z 25022KT 25/M05 A30 RMK A01 T02541046  RH  013%=      5-min Rain = 0
KHA2 142220Z 26019KT 25/M05 A30 RMK A01 T02531046  RH  013%=      5-min Rain = 0
KHA2 142221Z 25019KT 25/M05 A30 RMK A01 T02521046  RH  014%=      5-min Rain = 0
KHA2 142222Z 25020KT 25/M05 A30 RMK A01 T02521047  RH  013%=      5-min Rain = 0
KHA2 142223Z 25019KT 25/M05 A30 RMK A01 T02511048  RH  013%=      5-min Rain = 0
KHA2 142224Z 25017KT 25/M05 A30 RMK A01 T02511048  RH  013%=      5-min Rain = 0
KHA2 142225Z 26018KT 25/M05 A30 RMK A01 T02511047  RH  014%=      5-min Rain = 0
KHA2 142226Z 26019KT 25/M05 A30 RMK A01 T02521045  RH  014%=      5-min Rain = 0
KHA2 142227Z 25016KT 25/M04 A30 RMK A01 T02531043  RH  014%=      5-min Rain = 0
KHA2 142228Z 25016KT 25/M04 A30 RMK A01 T02541042  RH  014%=      5-min Rain = 0
KHA2 142229Z 25019KT 26/M04 A30 RMK A01 T02551042  RH  014%=      5-min Rain = 0
KHA2 142230Z 24016G22KT 25/M04 A30 RMK A01 T02541043  RH  014%=      5-min Rain = 0
KHA2 142231Z 25018KT 25/M04 A30 RMK A01 T02531042  RH  014%=      5-min Rain = 0
KHA2 142232Z 25017KT 25/M04 A30 RMK A01 T02531043  RH  014%=      5-min Rain = 0
KHA2 142233Z 26020KT 25/M04 A30 RMK A01 T02531042  RH  014%=      5-min Rain = 0
KHA2 142234Z 26020KT 25/M04 A30 RMK A01 T02531043  RH  014%=      5-min Rain = 0
KHA2 142235Z 26021G26KT 25/M04 A30 RMK A01 T02521043  RH  014%=      5-min Rain = 0
KHA2 142236Z 25017KT 25/M04 A30 RMK A01 T02511042  RH  014%=      5-min Rain = 0
KHA2 142237Z 25020KT 25/M04 A30 RMK A01 T02521042  RH  014%=      5-min Rain = 0
KHA2 142238Z 25017KT 25/M04 A30 RMK A01 T02511043  RH  014%=      5-min Rain = 0
KHA2 142239Z 26019KT 25/M04 A30 RMK A01 T02511043  RH  014%=      5-min Rain = 0
KHA2 142240Z 25021KT 25/M04 A30 RMK A01 T02501044  RH  014%=      5-min Rain = 0
KHA2 142241Z 25019KT 25/M04 A2999 RMK A01 T02491044  RH  014%=      5-min Rain = 0
KHA2 142242Z 25020KT 25/M04 A2999 RMK A01 T02481043  RH  014%=      5-min Rain = 0
KHA2 142243Z 25019KT 25/M04 A2999 RMK A01 T02481042  RH  014%=      5-min Rain = 0
KHA2 142244Z 26018KT 25/M04 A30 RMK A01 T02481043  RH  014%=      5-min Rain = 0
KHA2 142245Z 26018KT 25/M04 A30 RMK A01 T02491043  RH  014%=      5-min Rain = 0
KHA2 142246Z 26015KT 25/M04 A30 RMK A01 T02491043  RH  014%=      5-min Rain = 0
KHA2 142247Z 25015KT 25/M04 A30 RMK A01 T02501042  RH  014%=      5-min Rain = 0
KHA2 142248Z 25020KT 25/M04 A2999 RMK A01 T02491042  RH  014%=      5-min Rain = 0
KHA2 142249Z 26019KT 25/M04 A2999 RMK A01 T02481043  RH  014%=      5-min Rain = 0
KHA2 142250Z 25020KT 25/M04 A2999 RMK A01 T02471043  RH  014%=      5-min Rain = 0
KHA2 142251Z 26021KT 25/M04 A2999 RMK A01 T02471042  RH  014%=      5-min Rain = 0
KHA2 142252Z 26017KT 25/M04 A2999 RMK A01 T02461042  RH  015%=      5-min Rain = 0
KHA2 142253Z 26018KT 25/M04 A2999 RMK A01 T02471041  RH  015%=      5-min Rain = 0
KHA2 142254Z 25018KT 25/M04 A2999 RMK A01 T02461041  RH  015%=      5-min Rain = 0
KHA2 142255Z 25020KT 25/M04 A2999 RMK A01 T02461041  RH  015%=      5-min Rain = 0
KHA2 142256Z 25021KT 25/M04 A2999 RMK A01 T02451042  RH  015%=      5-min Rain = 0
KHA2 142257Z 25018KT 24/M04 A2999 RMK A01 T02431043  RH  015%=      5-min Rain = 0
KHA2 142258Z 25015KT 24/M04 A2999 RMK A01 T02431042  RH  015%=      5-min Rain = 0
KHA2 142259Z 25015KT 24/M04 A2999 RMK A01 T02431042  RH  015%=      5-min Rain = 0
KHA2 142300Z 26014KT 24/M04 A2999 RMK A01 T02431043  RH  015%=      5-min Rain = 0
KHA2 142301Z 27015KT 24/M04 A2999 RMK A01 T02431043  RH  015%=      5-min Rain = 0
KHA2 142302Z 25016KT 24/M04 A2999 RMK A01 T02421043  RH  015%=      5-min Rain = 0
KHA2 142303Z 27015KT 24/M04 A2999 RMK A01 T02411044  RH  015%=      5-min Rain = 0
KHA2 142304Z 27013KT 24/M04 A2999 RMK A01 T02401044  RH  015%=      5-min Rain = 0
KHA2 142305Z 26014KT 24/M04 A2999 RMK A01 T02401044  RH  015%=      5-min Rain = 0
KHA2 142306Z 26014KT 24/M05 A2999 RMK A01 T02391045  RH  015%=      5-min Rain = 0
KHA2 142307Z 26013KT 24/M04 A2999 RMK A01 T02391044  RH  015%=      5-min Rain = 0
KHA2 142308Z 26016KT 24/M04 A2999 RMK A01 T02381044  RH  015%=      5-min Rain = 0
KHA2 142309Z 26014KT 24/M04 A2999 RMK A01 T02381043  RH  015%=      5-min Rain = 0
KHA2 142310Z 26016KT 24/M04 A2998 RMK A01 T02381043  RH  015%=      5-min Rain = 0
KHA2 142311Z 25014KT 24/M04 A2999 RMK A01 T02371042  RH  015%=      5-min Rain = 0
KHA2 142312Z 25015KT 24/M04 A2998 RMK A01 T02381041  RH  015%=      5-min Rain = 0
KHA2 142313Z 25016KT 24/M04 A2999 RMK A01 T02371042  RH  015%=      5-min Rain = 0
KHA2 142314Z 25013KT 24/M04 A2999 RMK A01 T02371041  RH  015%=      5-min Rain = 0
KHA2 142315Z 25013KT 24/M04 A2999 RMK A01 T02371041  RH  015%=      5-min Rain = 0
KHA2 142316Z 25013KT 24/M04 A2998 RMK A01 T02371042  RH  015%=      5-min Rain = 0
KHA2 142317Z 26014KT 24/M04 A2998 RMK A01 T02381042  RH  015%=      5-min Rain = 0
KHA2 142318Z 25012KT 24/M04 A2999 RMK A01 T02381041  RH  015%=      5-min Rain = 0
KHA2 142319Z 25011KT 24/M04 A2999 RMK A01 T02381041  RH  015%=      5-min Rain = 0
KHA2 142320Z 26011KT 24/M04 A2998 RMK A01 T02381041  RH  015%=      5-min Rain = 0
KHA2 142321Z 26010KT 24/M04 A2998 RMK A01 T02381041  RH  015%=      5-min Rain = 0
KHA2 142322Z 25009KT 24/M04 A2998 RMK A01 T02381041  RH  015%=      5-min Rain = 0
KHA2 142323Z 26012KT 24/M04 A2998 RMK A01 T02371041  RH  015%=      5-min Rain = 0
KHA2 142324Z 25015KT 24/M04 A2998 RMK A01 T02371041  RH  015%=      5-min Rain = 0
KHA2 142325Z 25015KT 24/M04 A2998 RMK A01 T02371041  RH  015%=      5-min Rain = 0
KHA2 142326Z 26013KT 24/M04 A2998 RMK A01 T02371040  RH  015%=      5-min Rain = 0
KHA2 142327Z 26012KT 24/M04 A2998 RMK A01 T02361041  RH  016%=      5-min Rain = 0
KHA2 142328Z 25015KT 24/M04 A2998 RMK A01 T02361040  RH  016%=      5-min Rain = 0
KHA2 142329Z 26012KT 24/M04 A2998 RMK A01 T02361041  RH  016%=      5-min Rain = 0
KHA2 142330Z 26011G16KT 24/M04 A2998 RMK A01 T02361040  RH  016%=      5-min Rain = 0
KHA2 142331Z 25016KT 24/M04 A2998 RMK A01 T02351041  RH  016%=      5-min Rain = 0
KHA2 142332Z 26015KT 24/M04 A2998 RMK A01 T02351041  RH  016%=      5-min Rain = 0
KHA2 142333Z 26014KT 24/M04 A2998 RMK A01 T02351040  RH  016%=      5-min Rain = 0
KHA2 142334Z 26014KT 24/M04 A2998 RMK A01 T02351040  RH  016%=      5-min Rain = 0
KHA2 142335Z 26015KT 24/M04 A2998 RMK A01 T02351041  RH  016%=      5-min Rain = 0
KHA2 142336Z 26014KT 23/M04 A2998 RMK A01 T02341041  RH  016%=      5-min Rain = 0
KHA2 142337Z 26016KT 23/M04 A2998 RMK A01 T02341042  RH  016%=      5-min Rain = 0
KHA2 142338Z 25014KT 23/M04 A2998 RMK A01 T02341041  RH  016%=      5-min Rain = 0
KHA2 142339Z 25013KT 23/M04 A2998 RMK A01 T02331041  RH  016%=      5-min Rain = 0
KHA2 142340Z 26013KT 23/M04 A2998 RMK A01 T02321042  RH  016%=      5-min Rain = 0
KHA2 142341Z 25012KT 23/M04 A2998 RMK A01 T02321042  RH  016%=      5-min Rain = 0
KHA2 142342Z 26013KT 23/M04 A2998 RMK A01 T02311042  RH  016%=      5-min Rain = 0
KHA2 142343Z 25010KT 23/M04 A2998 RMK A01 T02311042  RH  016%=      5-min Rain = 0
KHA2 142344Z 25010KT 23/M04 A2998 RMK A01 T02301042  RH  016%=      5-min Rain = 0
KHA2 142345Z 25011KT 23/M04 A2998 RMK A01 T02291042  RH  016%=      5-min Rain = 0
KHA2 142346Z 25010KT 23/M04 A2998 RMK A01 T02291042  RH  016%=      5-min Rain = 0
KHA2 142347Z 25009KT 23/M04 A2998 RMK A01 T02281043  RH  016%=      5-min Rain = 0
KHA2 142348Z 25008KT 23/M04 A2998 RMK A01 T02271043  RH  016%=      5-min Rain = 0
KHA2 142349Z 26009KT 23/M04 A2998 RMK A01 T02271043  RH  016%=      5-min Rain = 0
KHA2 142350Z 26007KT 23/M04 A2998 RMK A01 T02261043  RH  016%=      5-min Rain = 0
KHA2 142351Z 26007KT 23/M04 A2998 RMK A01 T02251043  RH  016%=      5-min Rain = 0
KHA2 142352Z 26008KT 22/M04 A2998 RMK A01 T02241043  RH  016%=      5-min Rain = 0
KHA2 142353Z 26008KT 22/M04 A2998 RMK A01 T02231043  RH  017%=      5-min Rain = 0
KHA2 142354Z 27008KT 22/M04 A2998 RMK A01 T02231043  RH  017%=      5-min Rain = 0
KHA2 142355Z 27009KT 22/M04 A2998 RMK A01 T02221043  RH  017%=      5-min Rain = 0
KHA2 142356Z 27008KT 22/M04 A2998 RMK A01 T02221043  RH  017%=      5-min Rain = 0
KHA2 142357Z 27007KT 22/M04 A2998 RMK A01 T02211043  RH  017%=      5-min Rain = 0
KHA2 142358Z 27008KT 22/M04 A2998 RMK A01 T02211044  RH  017%=      5-min Rain = 0
KHA2 142359Z 26008KT 22/M04 A2998 RMK A01 T02201044  RH  017%=      5-min Rain = 0
KHA2 150000Z 27009KT 22/M04 A2998 RMK A01 T02201044  RH  017%=      5-min Rain = 0
KHA2 150001Z 27009KT 22/M04 A2998 RMK A01 T02211044  RH  017%=      5-min Rain = 0
KHA2 150002Z 27011KT 22/M05 A2998 RMK A01 T02201045  RH  017%=      5-min Rain = 0
KHA2 150003Z 26010KT 22/M05 A2998 RMK A01 T02201045  RH  017%=      5-min Rain = 0
KHA2 150004Z 27009KT 22/M05 A2998 RMK A01 T02201045  RH  017%=      5-min Rain = 0
KHA2 150005Z 27009KT 22/M05 A2998 RMK A01 T02191046  RH  017%=      5-min Rain = 0
KHA2 150006Z 26009KT 22/M05 A2998 RMK A01 T02181046  RH  017%=      5-min Rain = 0
KHA2 150007Z 27010KT 22/M05 A2998 RMK A01 T02171046  RH  017%=      5-min Rain = 0
KHA2 150008Z 27010KT 22/M05 A2998 RMK A01 T02171046  RH  017%=      5-min Rain = 0
KHA2 150009Z 27009KT 22/M05 A2998 RMK A01 T02161047  RH  017%=      5-min Rain = 0
KHA2 150010Z 27011KT 22/M05 A2998 RMK A01 T02151047  RH  017%=      5-min Rain = 0
KHA2 150011Z 27011KT 22/M05 A2998 RMK A01 T02151047  RH  017%=      5-min Rain = 0
KHA2 150012Z 27010KT 22/M05 A2998 RMK A01 T02161047  RH  017%=      5-min Rain = 0
KHA2 150013Z 27008KT 22/M05 A2998 RMK A01 T02161047  RH  017%=      5-min Rain = 0
KHA2 150014Z 27009KT 22/M05 A2998 RMK A01 T02151047  RH  017%=      5-min Rain = 0
KHA2 150015Z 27008KT 22/M05 A2998 RMK A01 T02151047  RH  017%=      5-min Rain = 0
KHA2 150016Z 27009KT 21/M05 A2998 RMK A01 T02141048  RH  017%=      5-min Rain = 0
KHA2 150017Z 27009KT 21/M05 A2998 RMK A01 T02131048  RH  017%=      5-min Rain = 0
KHA2 150018Z 27008KT 21/M05 A2998 RMK A01 T02121049  RH  017%=      5-min Rain = 0
KHA2 150019Z 27009KT 21/M05 A2998 RMK A01 T02111050  RH  017%=      5-min Rain = 0
KHA2 150020Z 27009KT 21/M05 A2998 RMK A01 T02101050  RH  017%=      5-min Rain = 0
KHA2 150021Z 27009KT 21/M05 A2998 RMK A01 T02101050  RH  017%=      5-min Rain = 0
KHA2 150022Z 27008KT 21/M05 A2998 RMK A01 T02091051  RH  017%=      5-min Rain = 0
KHA2 150023Z 27007KT 21/M05 A2998 RMK A01 T02091051  RH  017%=      5-min Rain = 0
KHA2 150024Z 27007KT 21/M05 A2998 RMK A01 T02071052  RH  017%=      5-min Rain = 0
KHA2 150025Z 28009KT 21/M05 A2998 RMK A01 T02071052  RH  017%=      5-min Rain = 0
KHA2 150026Z 28008KT 21/M05 A2998 RMK A01 T02061052  RH  017%=      5-min Rain = 0
KHA2 150027Z 28008KT 21/M05 A2998 RMK A01 T02061051  RH  017%=      5-min Rain = 0
KHA2 150028Z 27007KT 21/M05 A2998 RMK A01 T02061052  RH  017%=      5-min Rain = 0
KHA2 150029Z 27007KT 21/M05 A2998 RMK A01 T02051052  RH  017%=      5-min Rain = 0
KHA2 150030Z 27006KT 20/M05 A2998 RMK A01 T02031053  RH  017%=      5-min Rain = 0
KHA2 150031Z 27006KT 20/M05 A2998 RMK A01 T02011053  RH  017%=      5-min Rain = 0
KHA2 150032Z 28007KT 20/M05 A2998 RMK A01 T02001054  RH  018%=      5-min Rain = 0
KHA2 150033Z 28007KT 20/M05 A2998 RMK A01 T02001053  RH  018%=      5-min Rain = 0
KHA2 150034Z 27007KT 20/M05 A2998 RMK A01 T01991054  RH  018%=      5-min Rain = 0
KHA2 150035Z 28007KT 20/M05 A2998 RMK A01 T01991053  RH  018%=      5-min Rain = 0
KHA2 150036Z 27007KT 20/M05 A2998 RMK A01 T01991053  RH  018%=      5-min Rain = 0
KHA2 150037Z 27007KT 20/M05 A2998 RMK A01 T01991053  RH  018%=      5-min Rain = 0
KHA2 150038Z 28006KT 20/M05 A2998 RMK A01 T01981054  RH  018%=      5-min Rain = 0
KHA2 150039Z 27007KT 20/M05 A2998 RMK A01 T01971054  RH  018%=      5-min Rain = 0
KHA2 150040Z 27007KT 20/M05 A2998 RMK A01 T01961054  RH  018%=      5-min Rain = 0
KHA2 150041Z 27007KT 20/M05 A2998 RMK A01 T01951054  RH  018%=      5-min Rain = 0
KHA2 150042Z 27008KT 19/M06 A2998 RMK A01 T01941055  RH  018%=      5-min Rain = 0
KHA2 150043Z 27008KT 19/M06 A2998 RMK A01 T01941055  RH  018%=      5-min Rain = 0
KHA2 150044Z 28007KT 19/M06 A2998 RMK A01 T01941055  RH  018%=      5-min Rain = 0
KHA2 150045Z 27007KT 19/M06 A2998 RMK A01 T01941055  RH  018%=      5-min Rain = 0
KHA2 150046Z 27007KT 19/M06 A2998 RMK A01 T01921055  RH  018%=      5-min Rain = 0
KHA2 150047Z 27006KT 19/M06 A2998 RMK A01 T01921055  RH  018%=      5-min Rain = 0
KHA2 150048Z 27006KT 19/M06 A2998 RMK A01 T01921055  RH  018%=      5-min Rain = 0
KHA2 150049Z 27006KT 19/M06 A2998 RMK A01 T01901056  RH  018%=      5-min Rain = 0
KHA2 150050Z 27006KT 19/M06 A2998 RMK A01 T01881056  RH  019%=      5-min Rain = 0
KHA2 150051Z 27006KT 19/M06 A2998 RMK A01 T01871056  RH  019%=      5-min Rain = 0
KHA2 150052Z 28007KT 19/M06 A2998 RMK A01 T01851057  RH  019%=      5-min Rain = 0
KHA2 150053Z 27006KT 18/M06 A2998 RMK A01 T01841057  RH  019%=      5-min Rain = 0
KHA2 150054Z 27006KT 19/M06 A2998 RMK A01 T01851056  RH  019%=      5-min Rain = 0
KHA2 150055Z 27007KT 19/M06 A2998 RMK A01 T01851057  RH  019%=      5-min Rain = 0
KHA2 150056Z 27007KT 19/M06 A2998 RMK A01 T01861057  RH  019%=      5-min Rain = 0
KHA2 150057Z 27006KT 19/M06 A2998 RMK A01 T01851057  RH  019%=      5-min Rain = 0
KHA2 150058Z 27006KT 19/M06 A2998 RMK A01 T01851057  RH  019%=      5-min Rain = 0
KHA2 150059Z 27006KT 19/M06 A2998 RMK A01 T01851057  RH  019%=      5-min Rain = 0
KHA2 150100Z 27006KT 18/M06 A2998 RMK A01 T01841057  RH  019%=      5-min Rain = 0
KHA2 150101Z 27006KT 18/M06 A2998 RMK A01 T01831057  RH  019%=      5-min Rain = 0
KHA2 150102Z 26006KT 18/M06 A2998 RMK A01 T01831057  RH  019%=      5-min Rain = 0
KHA2 150103Z 26007KT 18/M06 A2998 RMK A01 T01811059  RH  019%=      5-min Rain = 0
KHA2 150104Z 26007KT 18/M06 A2998 RMK A01 T01791059  RH  019%=      5-min Rain = 0
KHA2 150105Z 26007KT 18/M06 A2998 RMK A01 T01761060  RH  019%=      5-min Rain = 0
KHA2 150106Z 26007KT 17/M06 A2998 RMK A01 T01731061  RH  020%=      5-min Rain = 0
KHA2 150107Z 26007KT 17/M06 A2998 RMK A01 T01711060  RH  020%=      5-min Rain = 0
KHA2 150108Z 26007KT 17/M06 A2998 RMK A01 T01691060  RH  020%=      5-min Rain = 0
KHA2 150109Z 26007KT 17/M06 A2998 RMK A01 T01691060  RH  020%=      5-min Rain = 0
KHA2 150110Z 26007KT 17/M06 A2998 RMK A01 T01681060  RH  020%=      5-min Rain = 0
KHA2 150111Z 26007KT 17/M06 A2998 RMK A01 T01651061  RH  021%=      5-min Rain = 0
KHA2 150112Z 26007KT 16/M06 A2998 RMK A01 T01631061  RH  021%=      5-min Rain = 0
KHA2 150113Z 25007KT 16/M06 A2998 RMK A01 T01631060  RH  021%=      5-min Rain = 0
KHA2 150114Z 25008KT 16/M06 A2998 RMK A01 T01631061  RH  021%=      5-min Rain = 0
KHA2 150115Z 25008KT 16/M06 A2998 RMK A01 T01611061  RH  021%=      5-min Rain = 0
KHA2 150116Z 25008KT 16/M06 A2998 RMK A01 T01601062  RH  021%=      5-min Rain = 0
KHA2 150117Z 25008KT 16/M06 A2998 RMK A01 T01591063  RH  021%=      5-min Rain = 0
KHA2 150118Z 25008KT 16/M06 A2998 RMK A01 T01571063  RH  021%=      5-min Rain = 0
KHA2 150119Z 25008KT 16/M06 A2998 RMK A01 T01561062  RH  022%=      5-min Rain = 0
KHA2 150120Z 25007KT 16/M06 A2998 RMK A01 T01551063  RH  022%=      5-min Rain = 0
KHA2 150121Z 25007KT 15/M06 A2998 RMK A01 T01541063  RH  022%=      5-min Rain = 0
KHA2 150122Z 25007KT 15/M06 A2998 RMK A01 T01531063  RH  022%=      5-min Rain = 0
KHA2 150123Z 24007KT 15/M06 A2998 RMK A01 T01531062  RH  022%=      5-min Rain = 0
KHA2 150124Z 24008KT 15/M06 A2998 RMK A01 T01531062  RH  022%=      5-min Rain = 0
KHA2 150125Z 24008KT 15/M06 A2998 RMK A01 T01521062  RH  022%=      5-min Rain = 0
KHA2 150126Z 24007KT 15/M06 A2998 RMK A01 T01521062  RH  022%=      5-min Rain = 0
KHA2 150127Z 24007KT 15/M06 A2998 RMK A01 T01511062  RH  022%=      5-min Rain = 0
KHA2 150128Z 24007KT 15/M06 A2998 RMK A01 T01521061  RH  022%=      5-min Rain = 0
KHA2 150129Z 24006KT 15/M06 A2998 RMK A01 T01531061  RH  022%=      5-min Rain = 0
KHA2 150130Z 23006KT 15/M06 A2998 RMK A01 T01521062  RH  022%=      5-min Rain = 0
KHA2 150131Z 22006KT 15/M06 A2998 RMK A01 T01521062  RH  022%=      5-min Rain = 0
KHA2 150132Z 22006KT 15/M06 A2998 RMK A01 T01511062  RH  022%=      5-min Rain = 0
KHA2 150133Z 22007KT 15/M06 A2998 RMK A01 T01481064  RH  022%=      5-min Rain = 0
KHA2 150134Z 22008KT 14/M07 A2998 RMK A01 T01441067  RH  023%=      5-min Rain = 0
KHA2 150135Z 22007KT 14/M07 A2998 RMK A01 T01401068  RH  023%=      5-min Rain = 0
KHA2 150136Z 22007KT 14/M07 A2998 RMK A01 T01381067  RH  023%=      5-min Rain = 0
KHA2 150137Z 22008KT 14/M07 A2998 RMK A01 T01371067  RH  024%=      5-min Rain = 0
KHA2 150138Z 22008KT 14/M07 A2998 RMK A01 T01371067  RH  024%=      5-min Rain = 0
KHA2 150139Z 22008KT 14/M07 A2998 RMK A01 T01361067  RH  024%=      5-min Rain = 0
KHA2 150140Z 22008KT 13/M07 A2998 RMK A01 T01341067  RH  024%=      5-min Rain = 0
KHA2 150141Z 23008KT 13/M07 A2998 RMK A01 T01331067  RH  024%=      5-min Rain = 0
KHA2 150142Z 22008KT 13/M07 A2998 RMK A01 T01311067  RH  025%=      5-min Rain = 0
KHA2 150143Z 22008KT 13/M07 A2998 RMK A01 T01281068  RH  025%=      5-min Rain = 0
KHA2 150144Z 22008KT 13/M07 A2998 RMK A01 T01281068  RH  025%=      5-min Rain = 0
KHA2 150145Z 22009KT 13/M07 A2998 RMK A01 T01281067  RH  025%=      5-min Rain = 0
KHA2 150146Z 22009KT 13/M07 A2998 RMK A01 T01271068  RH  025%=      5-min Rain = 0
KHA2 150147Z 22009KT 13/M07 A2998 RMK A01 T01271068  RH  025%=      5-min Rain = 0
KHA2 150148Z 22009KT 13/M07 A2998 RMK A01 T01271068  RH  025%=      5-min Rain = 0
KHA2 150149Z 22008KT 13/M07 A2998 RMK A01 T01261068  RH  025%=      5-min Rain = 0
KHA2 150150Z 22008KT 13/M07 A2998 RMK A01 T01251068  RH  025%=      5-min Rain = 0
KHA2 150151Z 22007KT 13/M07 A2998 RMK A01 T01261067  RH  025%=      5-min Rain = 0
KHA2 150152Z 22008KT 13/M07 A2999 RMK A01 T01251068  RH  025%=      5-min Rain = 0
KHA2 150153Z 22008KT 13/M07 A2998 RMK A01 T01261067  RH  025%=      5-min Rain = 0
KHA2 150154Z 22008KT 13/M07 A2999 RMK A01 T01271066  RH  025%=      5-min Rain = 0
KHA2 150155Z 22008KT 13/M07 A2999 RMK A01 T01291066  RH  025%=      5-min Rain = 0
KHA2 150156Z 23007KT 13/M07 A2999 RMK A01 T01291066  RH  025%=      5-min Rain = 0
KHA2 150157Z 23006KT 13/M06 A2999 RMK A01 T01311064  RH  025%=      5-min Rain = 0
KHA2 150158Z 23007KT 13/M06 A2999 RMK A01 T01331063  RH  025%=      5-min Rain = 0
KHA2 150159Z 22007KT 14/M06 A2999 RMK A01 T01361064  RH  024%=      5-min Rain = 0
KHA2 150200Z 22007KT 14/M07 A2999 RMK A01 T01351065  RH  024%=      5-min Rain = 0
KHA2 150201Z 22007KT 13/M07 A2999 RMK A01 T01321066  RH  025%=      5-min Rain = 0
KHA2 150202Z 22008KT 13/M07 A2999 RMK A01 T01301066  RH  025%=      5-min Rain = 0
KHA2 150203Z 23007KT 13/M07 A2999 RMK A01 T01301065  RH  025%=      5-min Rain = 0
KHA2 150204Z 23007KT 13/M07 A2999 RMK A01 T01301065  RH  025%=      5-min Rain = 0
KHA2 150205Z 23007KT 13/M06 A2999 RMK A01 T01301064  RH  025%=      5-min Rain = 0
KHA2 150206Z 23007KT 13/M06 A2999 RMK A01 T01311064  RH  025%=      5-min Rain = 0
KHA2 150207Z 23007KT 13/M06 A2999 RMK A01 T01331063  RH  025%=      5-min Rain = 0
KHA2 150208Z 23006KT 13/M06 A2999 RMK A01 T01341061  RH  025%=      5-min Rain = 0
KHA2 150209Z 23006KT 14/M06 A2999 RMK A01 T01351061  RH  025%=      5-min Rain = 0
KHA2 150210Z 23006KT 14/M06 A2999 RMK A01 T01361061  RH  025%=      5-min Rain = 0
KHA2 150211Z 23006KT 14/M06 A2999 RMK A01 T01361060  RH  025%=      5-min Rain = 0
KHA2 150212Z 23006KT 14/M06 A2999 RMK A01 T01371060  RH  025%=      5-min Rain = 0
KHA2 150213Z 23006KT 14/M06 A2999 RMK A01 T01381060  RH  025%=      5-min Rain = 0
KHA2 150214Z 23007KT 14/M06 A2999 RMK A01 T01391060  RH  025%=      5-min Rain = 0
KHA2 150215Z 24007KT 14/M06 A2999 RMK A01 T01401060  RH  024%=      5-min Rain = 0
KHA2 150216Z 24007KT 14/M06 A2999 RMK A01 T01401060  RH  024%=      5-min Rain = 0
KHA2 150217Z 24007KT 14/M06 A2999 RMK A01 T01401060  RH  024%=      5-min Rain = 0
KHA2 150218Z 23006KT 14/M06 A2998 RMK A01 T01401060  RH  025%=      5-min Rain = 0
KHA2 150219Z 23005KT 14/M06 A2998 RMK A01 T01391060  RH  025%=      5-min Rain = 0
KHA2 150220Z 24006KT 14/M06 A2998 RMK A01 T01371061  RH  025%=      5-min Rain = 0
KHA2 150221Z 24005KT 14/M06 A2998 RMK A01 T01351061  RH  025%=      5-min Rain = 0
KHA2 150222Z 24006KT 13/M06 A2999 RMK A01 T01341061  RH  025%=      5-min Rain = 0
KHA2 150223Z 24006KT 13/M06 A2999 RMK A01 T01321061  RH  025%=      5-min Rain = 0
KHA2 150224Z 25006KT 13/M06 A2999 RMK A01 T01321060  RH  026%=      5-min Rain = 0
KHA2 150225Z 25006KT 13/M06 A2999 RMK A01 T01311060  RH  026%=      5-min Rain = 0
KHA2 150226Z 25007KT 13/M06 A2999 RMK A01 T01311059  RH  026%=      5-min Rain = 0
KHA2 150227Z 25007KT 13/M06 A2999 RMK A01 T01321057  RH  026%=      5-min Rain = 0
KHA2 150228Z 25007KT 13/M05 A2999 RMK A01 T01341054  RH  027%=      5-min Rain = 0
KHA2 150229Z 25008KT 14/M05 A2999 RMK A01 T01391050  RH  027%=      5-min Rain = 0
KHA2 150230Z 25008KT 14/M05 A2999 RMK A01 T01441048  RH  026%=      5-min Rain = 0
KHA2 150231Z 25008KT 15/M05 A2999 RMK A01 T01461047  RH  026%=      5-min Rain = 0
KHA2 150232Z 25008KT 15/M05 A2999 RMK A01 T01491047  RH  025%=      5-min Rain = 0
KHA2 150233Z 25008KT 15/M05 A2999 RMK A01 T01501048  RH  025%=      5-min Rain = 0
KHA2 150234Z 25008KT 15/M05 A2999 RMK A01 T01521047  RH  025%=      5-min Rain = 0
KHA2 150235Z 24007KT 15/M05 A2999 RMK A01 T01531046  RH  025%=      5-min Rain = 0
KHA2 150236Z 24008KT 15/M05 A2999 RMK A01 T01531046  RH  025%=      5-min Rain = 0
KHA2 150237Z 24008KT 15/M05 A2999 RMK A01 T01541045  RH  025%=      5-min Rain = 0
KHA2 150238Z 24008KT 15/M05 A2999 RMK A01 T01541045  RH  025%=      5-min Rain = 0
KHA2 150239Z 24008KT 15/M05 A2999 RMK A01 T01531046  RH  025%=      5-min Rain = 0
KHA2 150240Z 24008KT 15/M05 A2999 RMK A01 T01521046  RH  025%=      5-min Rain = 0
KHA2 150241Z 24008KT 15/M05 A2999 RMK A01 T01511047  RH  025%=      5-min Rain = 0
KHA2 150242Z 24008KT 15/M05 A2999 RMK A01 T01491048  RH  025%=      5-min Rain = 0
KHA2 150243Z 24008KT 15/M05 A2999 RMK A01 T01471048  RH  026%=      5-min Rain = 0
KHA2 150244Z 24008KT 15/M05 A2999 RMK A01 T01451048  RH  026%=      5-min Rain = 0
KHA2 150245Z 23008KT 14/M05 A2999 RMK A01 T01431048  RH  026%=      5-min Rain = 0
KHA2 150246Z 24008KT 14/M05 A2999 RMK A01 T01421048  RH  027%=      5-min Rain = 0
KHA2 150247Z 23008KT 14/M05 A30 RMK A01 T01421046  RH  027%=      5-min Rain = 0
KHA2 150248Z 23008KT 14/M05 A30 RMK A01 T01421046  RH  027%=      5-min Rain = 0
KHA2 150249Z 24007KT 14/M04 A30 RMK A01 T01421044  RH  027%=      5-min Rain = 0
KHA2 150250Z 24007KT 14/M04 A30 RMK A01 T01431044  RH  027%=      5-min Rain = 0
KHA2 150251Z 25008KT 14/M04 A30 RMK A01 T01431043  RH  027%=      5-min Rain = 0
KHA2 150252Z 26008KT 14/M04 A30 RMK A01 T01431042  RH  027%=      5-min Rain = 0
KHA2 150253Z 25008KT 14/M04 A30 RMK A01 T01441041  RH  028%=      5-min Rain = 0
KHA2 150254Z 25008KT 15/M04 A30 RMK A01 T01451040  RH  028%=      5-min Rain = 0
KHA2 150255Z 24008KT 15/M04 A30 RMK A01 T01461040  RH  027%=      5-min Rain = 0
KHA2 150256Z 25008KT 15/M04 A30 RMK A01 T01461040  RH  027%=      5-min Rain = 0
KHA2 150257Z 25008KT 15/M04 A30 RMK A01 T01461040  RH  027%=      5-min Rain = 0
KHA2 150258Z 25008KT 15/M04 A30 RMK A01 T01461039  RH  027%=      5-min Rain = 0
KHA2 150259Z 25008KT 15/M04 A30 RMK A01 T01451040  RH  028%=      5-min Rain = 0
KHA2 150300Z 25008KT 15/M04 A30 RMK A01 T01451039  RH  028%=      5-min Rain = 0
KHA2 150301Z 25008KT 15/M04 A2999 RMK A01 T01451038  RH  028%=      5-min Rain = 0
KHA2 150302Z 25008KT 15/M04 A2999 RMK A01 T01461037  RH  028%=      5-min Rain = 0
KHA2 150303Z 25007KT 15/M04 A30 RMK A01 T01461036  RH  028%=      5-min Rain = 0
KHA2 150304Z 25008KT 15/M04 A30 RMK A01 T01461036  RH  028%=      5-min Rain = 0
KHA2 150305Z 25008KT 15/M04 A30 RMK A01 T01461036  RH  028%=      5-min Rain = 0
KHA2 150306Z 25008KT 15/M04 A2999 RMK A01 T01451036  RH  028%=      5-min Rain = 0
KHA2 150307Z 26008KT 15/M04 A2999 RMK A01 T01451037  RH  028%=      5-min Rain = 0
KHA2 150308Z 25007KT 15/M04 A2999 RMK A01 T01451037  RH  028%=      5-min Rain = 0
KHA2 150309Z 26008KT 15/M04 A2999 RMK A01 T01451037  RH  028%=      5-min Rain = 0
KHA2 150310Z 26007KT 15/M04 A2999 RMK A01 T01461037  RH  028%=      5-min Rain = 0
KHA2 150311Z 26008KT 15/M04 A2999 RMK A01 T01461038  RH  028%=      5-min Rain = 0
KHA2 150312Z 26008KT 15/M04 A2999 RMK A01 T01461038  RH  028%=      5-min Rain = 0
KHA2 150313Z 26008KT 15/M04 A2999 RMK A01 T01461037  RH  028%=      5-min Rain = 0
KHA2 150314Z 26008KT 15/M04 A2999 RMK A01 T01461037  RH  028%=      5-min Rain = 0
KHA2 150315Z 25008KT 15/M04 A2999 RMK A01 T01461037  RH  028%=      5-min Rain = 0
KHA2 150316Z 25008KT 15/M04 A2999 RMK A01 T01461037  RH  028%=      5-min Rain = 0
KHA2 150317Z 25008KT 15/M04 A2999 RMK A01 T01461036  RH  028%=      5-min Rain = 0
KHA2 150318Z 25008KT 15/M04 A2999 RMK A01 T01461036  RH  028%=      5-min Rain = 0
KHA2 150319Z 25008KT 15/M04 A2999 RMK A01 T01461035  RH  028%=      5-min Rain = 0
KHA2 150320Z 25008KT 15/M04 A2999 RMK A01 T01451035  RH  028%=      5-min Rain = 0
KHA2 150321Z 26008KT 15/M04 A2999 RMK A01 T01451036  RH  029%=      5-min Rain = 0
KHA2 150322Z 26008KT 15/M04 A2999 RMK A01 T01451035  RH  029%=      5-min Rain = 0
KHA2 150323Z 26007KT 14/M04 A2999 RMK A01 T01441035  RH  029%=      5-min Rain = 0
KHA2 150324Z 26008KT 14/M04 A2999 RMK A01 T01441035  RH  029%=      5-min Rain = 0
KHA2 150325Z 26007KT 14/M04 A2999 RMK A01 T01441035  RH  029%=      5-min Rain = 0
KHA2 150326Z 26008KT 14/M04 A2999 RMK A01 T01441035  RH  029%=      5-min Rain = 0
KHA2 150327Z 25008KT 14/M03 A2999 RMK A01 T01441034  RH  029%=      5-min Rain = 0
KHA2 150328Z 25008KT 14/M04 A2999 RMK A01 T01441035  RH  029%=      5-min Rain = 0
KHA2 150329Z 25008KT 15/M03 A2999 RMK A01 T01451034  RH  029%=      5-min Rain = 0
KHA2 150330Z 25008KT 14/M03 A2999 RMK A01 T01441034  RH  029%=      5-min Rain = 0
KHA2 150331Z 25007KT 14/M03 A2999 RMK A01 T01431034  RH  029%=      5-min Rain = 0
KHA2 150332Z 25007KT 14/M03 A2999 RMK A01 T01431034  RH  029%=      5-min Rain = 0
KHA2 150333Z 25007KT 14/M03 A2999 RMK A01 T01431034  RH  029%=      5-min Rain = 0
KHA2 150334Z 25007KT 14/M03 A30 RMK A01 T01421034  RH  029%=      5-min Rain = 0
KHA2 150335Z 25007KT 14/M03 A30 RMK A01 T01421034  RH  029%=      5-min Rain = 0
KHA2 150336Z 25007KT 14/M03 A30 RMK A01 T01411034  RH  030%=      5-min Rain = 0
KHA2 150337Z 25008KT 14/M03 A2999 RMK A01 T01411033  RH  030%=      5-min Rain = 0
KHA2 150338Z 25007KT 14/M03 A2999 RMK A01 T01411032  RH  030%=      5-min Rain = 0
KHA2 150339Z 25007KT 14/M03 A2999 RMK A01 T01411032  RH  030%=      5-min Rain = 0
KHA2 150340Z 25007KT 14/M03 A2999 RMK A01 T01411032  RH  030%=      5-min Rain = 0
KHA2 150341Z 25007KT 14/M03 A2999 RMK A01 T01401032  RH  030%=      5-min Rain = 0
KHA2 150342Z 25007KT 14/M03 A2999 RMK A01 T01401031  RH  030%=      5-min Rain = 0
KHA2 150343Z 25007KT 14/M03 A2999 RMK A01 T01391031  RH  031%=      5-min Rain = 0
KHA2 150344Z 25008KT 14/M03 A2999 RMK A01 T01391030  RH  031%=      5-min Rain = 0
KHA2 150345Z 25008KT 14/M03 A30 RMK A01 T01401029  RH  031%=      5-min Rain = 0
KHA2 150346Z 26008KT 14/M03 A2999 RMK A01 T01411028  RH  031%=      5-min Rain = 0
KHA2 150347Z 26008KT 14/M03 A2999 RMK A01 T01421027  RH  031%=      5-min Rain = 0
KHA2 150348Z 26008KT 14/M03 A2999 RMK A01 T01431027  RH  031%=      5-min Rain = 0
KHA2 150349Z 25008KT 14/M03 A2999 RMK A01 T01421027  RH  031%=      5-min Rain = 0
KHA2 150350Z 26008KT 14/M03 A30 RMK A01 T01421027  RH  031%=      5-min Rain = 0
KHA2 150351Z 26009KT 14/M03 A30 RMK A01 T01431026  RH  031%=      5-min Rain = 0
KHA2 150352Z 26008KT 14/M03 A30 RMK A01 T01431026  RH  031%=      5-min Rain = 0
KHA2 150353Z 27009KT 14/M03 A30 RMK A01 T01431026  RH  031%=      5-min Rain = 0
KHA2 150354Z 28012KT 14/M03 A30 RMK A01 T01431025  RH  031%=      5-min Rain = 0
KHA2 150355Z 27011KT 15/M02 A3001 RMK A01 T01451023  RH  031%=      5-min Rain = 0
KHA2 150356Z 25012KT 15/M02 A30 RMK A01 T01491021  RH  031%=      5-min Rain = 0
KHA2 150357Z 26012KT 15/M02 A30 RMK A01 T01511020  RH  031%=      5-min Rain = 0
KHA2 150358Z 26013KT 15/M02 A30 RMK A01 T01521020  RH  031%=      5-min Rain = 0
KHA2 150359Z 26012KT 15/M02 A30 RMK A01 T01531019  RH  031%=      5-min Rain = 0
KHA2 150400Z 25011KT 15/M02 A30 RMK A01 T01531019  RH  030%=      5-min Rain = 0
KHA2 150401Z 25012KT 15/M02 A30 RMK A01 T01531019  RH  031%=      5-min Rain = 0
KHA2 150402Z 25013KT 16/M02 A30 RMK A01 T01551018  RH  031%=      5-min Rain = 0
KHA2 150403Z 25015G20KT 16/M02 A30 RMK A01 T01571016  RH  030%=      5-min Rain = 0
KHA2 150404Z 25014KT 16/M02 A30 RMK A01 T01611015  RH  030%=      5-min Rain = 0
KHA2 150405Z 25015KT 16/M02 A30 RMK A01 T01641015  RH  029%=      5-min Rain = 0
KHA2 150406Z 25015KT 17/M02 A30 RMK A01 T01661015  RH  029%=      5-min Rain = 0
KHA2 150407Z 25014KT 17/M02 A30 RMK A01 T01681015  RH  029%=      5-min Rain = 0
KHA2 150408Z 25014KT 17/M02 A30 RMK A01 T01691015  RH  028%=      5-min Rain = 0
KHA2 150409Z 25015KT 17/M02 A30 RMK A01 T01701015  RH  028%=      5-min Rain = 0
KHA2 150410Z 26014KT 17/M02 A30 RMK A01 T01721015  RH  028%=      5-min Rain = 0
KHA2 150411Z 26015KT 17/M02 A30 RMK A01 T01721015  RH  028%=      5-min Rain = 0
KHA2 150412Z 26015KT 17/M02 A30 RMK A01 T01721015  RH  028%=      5-min Rain = 0
KHA2 150413Z 26014KT 17/M02 A30 RMK A01 T01721016  RH  028%=      5-min Rain = 0
KHA2 150414Z 26014KT 17/M02 A30 RMK A01 T01721016  RH  028%=      5-min Rain = 0
KHA2 150415Z 26014KT 17/M02 A30 RMK A01 T01721016  RH  028%=      5-min Rain = 0
KHA2 150416Z 26015G21KT 17/M02 A30 RMK A01 T01721016  RH  028%=      5-min Rain = 0
KHA2 150417Z 26015KT 17/M02 A30 RMK A01 T01721016  RH  028%=      5-min Rain = 0
KHA2 150418Z 26016KT 17/M02 A30 RMK A01 T01731016  RH  028%=      5-min Rain = 0
KHA2 150419Z 26016KT 17/M02 A30 RMK A01 T01731016  RH  027%=      5-min Rain = 0
KHA2 150420Z 26015KT 17/M02 A30 RMK A01 T01741016  RH  027%=      5-min Rain = 0
KHA2 150421Z 26015KT 17/M02 A30 RMK A01 T01741016  RH  027%=      5-min Rain = 0
KHA2 150422Z 26014KT 17/M02 A30 RMK A01 T01741017  RH  027%=      5-min Rain = 0
KHA2 150423Z 26015KT 17/M02 A30 RMK A01 T01731017  RH  027%=      5-min Rain = 0
KHA2 150424Z 26014KT 17/M02 A30 RMK A01 T01731017  RH  027%=      5-min Rain = 0
KHA2 150425Z 26015KT 17/M02 A30 RMK A01 T01731017  RH  027%=      5-min Rain = 0
KHA2 150426Z 26015KT 17/M02 A30 RMK A01 T01731018  RH  027%=      5-min Rain = 0
KHA2 150427Z 26015KT 17/M02 A30 RMK A01 T01731018  RH  027%=      5-min Rain = 0
KHA2 150428Z 26015KT 17/M02 A30 RMK A01 T01731018  RH  027%=      5-min Rain = 0
KHA2 150429Z 26015KT 17/M02 A30 RMK A01 T01721019  RH  027%=      5-min Rain = 0
KHA2 150430Z 26013KT 17/M02 A30 RMK A01 T01711019  RH  027%=      5-min Rain = 0
KHA2 150431Z 26015KT 17/M02 A30 RMK A01 T01701019  RH  028%=      5-min Rain = 0
KHA2 150432Z 26015KT 17/M02 A30 RMK A01 T01691019  RH  028%=      5-min Rain = 0
KHA2 150433Z 26014KT 17/M02 A30 RMK A01 T01681019  RH  028%=      5-min Rain = 0
KHA2 150434Z 26014KT 17/M02 A30 RMK A01 T01681019  RH  028%=      5-min Rain = 0
KHA2 150435Z 26014KT 17/M02 A30 RMK A01 T01671020  RH  028%=      5-min Rain = 0
KHA2 150436Z 26013KT 17/M02 A30 RMK A01 T01661020  RH  028%=      5-min Rain = 0
KHA2 150437Z 26013KT 17/M02 A30 RMK A01 T01651020  RH  028%=      5-min Rain = 0
KHA2 150438Z 26012KT 16/M02 A30 RMK A01 T01641020  RH  028%=      5-min Rain = 0
KHA2 150439Z 26013KT 16/M02 A2999 RMK A01 T01631020  RH  028%=      5-min Rain = 0
KHA2 150440Z 26013KT 16/M02 A2999 RMK A01 T01631020  RH  028%=      5-min Rain = 0
KHA2 150441Z 26012KT 16/M02 A2999 RMK A01 T01631020  RH  028%=      5-min Rain = 0
KHA2 150442Z 26012KT 16/M02 A2999 RMK A01 T01611021  RH  029%=      5-min Rain = 0
KHA2 150443Z 26011KT 16/M02 A2999 RMK A01 T01611021  RH  029%=      5-min Rain = 0
KHA2 150444Z 26011KT 16/M02 A2999 RMK A01 T01601021  RH  029%=      5-min Rain = 0
KHA2 150445Z 26010KT 16/M02 A2999 RMK A01 T01591021  RH  029%=      5-min Rain = 0
KHA2 150446Z 26011KT 16/M02 A2999 RMK A01 T01571022  RH  029%=      5-min Rain = 0
KHA2 150447Z 26011KT 16/M02 A2999 RMK A01 T01571022  RH  029%=      5-min Rain = 0
KHA2 150448Z 25010KT 16/M02 A2999 RMK A01 T01561022  RH  029%=      5-min Rain = 0
KHA2 150449Z 26010KT 16/M02 A2999 RMK A01 T01551022  RH  030%=      5-min Rain = 0
KHA2 150450Z 25010KT 15/M02 A2999 RMK A01 T01531023  RH  030%=      5-min Rain = 0
KHA2 150451Z 25009KT 15/M02 A2999 RMK A01 T01531022  RH  030%=      5-min Rain = 0
KHA2 150452Z 25010KT 15/M02 A2999 RMK A01 T01521022  RH  030%=      5-min Rain = 0
KHA2 150453Z 25009KT 15/M02 A2999 RMK A01 T01521022  RH  030%=      5-min Rain = 0
KHA2 150454Z 25009KT 15/M02 A2999 RMK A01 T01511023  RH  030%=      5-min Rain = 0
KHA2 150455Z 25009KT 15/M02 A2999 RMK A01 T01501022  RH  030%=      5-min Rain = 0
KHA2 150456Z 25009KT 15/M02 A2999 RMK A01 T01491023  RH  030%=      5-min Rain = 0
KHA2 150457Z 26009KT 15/M02 A2999 RMK A01 T01481023  RH  031%=      5-min Rain = 0
KHA2 150458Z 26008KT 15/M02 A2999 RMK A01 T01481023  RH  031%=      5-min Rain = 0
KHA2 150459Z 26009KT 15/M02 A2999 RMK A01 T01471023  RH  031%=      5-min Rain = 0
KHA2 150500Z 26009KT 15/M02 A2999 RMK A01 T01471022  RH  031%=      5-min Rain = 0
KHA2 150501Z 26009KT 15/M02 A2999 RMK A01 T01471023  RH  031%=      5-min Rain = 0
KHA2 150502Z 26009KT 15/M02 A2999 RMK A01 T01471022  RH  031%=      5-min Rain = 0
KHA2 150503Z 26009KT 15/M02 A2999 RMK A01 T01471022  RH  031%=      5-min Rain = 0
KHA2 150504Z 26010KT 15/M02 A2999 RMK A01 T01471022  RH  031%=      5-min Rain = 0
KHA2 150505Z 26010KT 15/M02 A2999 RMK A01 T01471021  RH  031%=      5-min Rain = 0
KHA2 150506Z 26011KT 15/M02 A2999 RMK A01 T01481021  RH  031%=      5-min Rain = 0
KHA2 150507Z 26011KT 15/M02 A2999 RMK A01 T01491020  RH  031%=      5-min Rain = 0
KHA2 150508Z 26010KT 15/M02 A2999 RMK A01 T01491019  RH  031%=      5-min Rain = 0
KHA2 150509Z 26010KT 15/M02 A2999 RMK A01 T01491019  RH  031%=      5-min Rain = 0
KHA2 150510Z 26011KT 15/M02 A2999 RMK A01 T01501018  RH  031%=      5-min Rain = 0
KHA2 150511Z 26009KT 15/M02 A2999 RMK A01 T01501018  RH  032%=      5-min Rain = 0
KHA2 150512Z 26009KT 15/M02 A2999 RMK A01 T01491019  RH  032%=      5-min Rain = 0
KHA2 150513Z 26009KT 15/M02 A2999 RMK A01 T01481018  RH  032%=      5-min Rain = 0
KHA2 150514Z 26008KT 15/M02 A2999 RMK A01 T01471019  RH  032%=      5-min Rain = 0
KHA2 150515Z 26009KT 15/M02 A2999 RMK A01 T01451019  RH  032%=      5-min Rain = 0
KHA2 150516Z 26009KT 14/M02 A2998 RMK A01 T01441019  RH  032%=      5-min Rain = 0
KHA2 150517Z 26008KT 14/M02 A2999 RMK A01 T01441018  RH  033%=      5-min Rain = 0
KHA2 150518Z 25009KT 14/M02 A2999 RMK A01 T01441018  RH  033%=      5-min Rain = 0
KHA2 150519Z 25009KT 14/M02 A2999 RMK A01 T01441018  RH  033%=      5-min Rain = 0
KHA2 150520Z 25008KT 14/M02 A2999 RMK A01 T01431018  RH  033%=      5-min Rain = 0
KHA2 150521Z 25008KT 14/M02 A2999 RMK A01 T01421018  RH  033%=      5-min Rain = 0
KHA2 150522Z 25008KT 14/M02 A2999 RMK A01 T01401019  RH  033%=      5-min Rain = 0
KHA2 150523Z 24008KT 14/M02 A2999 RMK A01 T01391019  RH  034%=      5-min Rain = 0
KHA2 150524Z 24007KT 14/M02 A2999 RMK A01 T01381019  RH  034%=      5-min Rain = 0
KHA2 150525Z 24007KT 14/M02 A2999 RMK A01 T01351020  RH  034%=      5-min Rain = 0
KHA2 150526Z 23008KT 13/M02 A2999 RMK A01 T01341020  RH  034%=      5-min Rain = 0
KHA2 150527Z 23008KT 13/M02 A2999 RMK A01 T01321021  RH  035%=      5-min Rain = 0
KHA2 150528Z 23007KT 13/M02 A2999 RMK A01 T01311021  RH  035%=      5-min Rain = 0
KHA2 150529Z 23008KT 13/M02 A2999 RMK A01 T01291021  RH  035%=      5-min Rain = 0
KHA2 150530Z 23009KT 13/M02 A2999 RMK A01 T01281021  RH  035%=      5-min Rain = 0
KHA2 150531Z 22008KT 13/M02 A2999 RMK A01 T01271022  RH  036%=      5-min Rain = 0
KHA2 150532Z 22008KT 13/M02 A2999 RMK A01 T01261022  RH  036%=      5-min Rain = 0
KHA2 150533Z 22008KT 13/M02 A2999 RMK A01 T01251022  RH  036%=      5-min Rain = 0
KHA2 150534Z 22008KT 12/M02 A2999 RMK A01 T01241023  RH  036%=      5-min Rain = 0
KHA2 150535Z 23009KT 12/M02 A2999 RMK A01 T01221023  RH  036%=      5-min Rain = 0
KHA2 150536Z 23009KT 12/M02 A2999 RMK A01 T01201023  RH  037%=      5-min Rain = 0
KHA2 150537Z 23009KT 12/M02 A2999 RMK A01 T01201022  RH  037%=      5-min Rain = 0
KHA2 150538Z 24010KT 12/M02 A2999 RMK A01 T01191023  RH  037%=      5-min Rain = 0
KHA2 150539Z 24010KT 12/M02 A2999 RMK A01 T01191023  RH  037%=      5-min Rain = 0
KHA2 150540Z 24009KT 12/M02 A2999 RMK A01 T01201022  RH  037%=      5-min Rain = 0
KHA2 150541Z 24010KT 12/M02 A2999 RMK A01 T01211021  RH  037%=      5-min Rain = 0
KHA2 150542Z 25011KT 12/M02 A2999 RMK A01 T01221020  RH  037%=      5-min Rain = 0
KHA2 150543Z 24011KT 12/M02 A2999 RMK A01 T01241019  RH  037%=      5-min Rain = 0
KHA2 150544Z 25011KT 13/M02 A2999 RMK A01 T01261017  RH  037%=      5-min Rain = 0
KHA2 150545Z 25010KT 13/M01 A2998 RMK A01 T01291014  RH  037%=      5-min Rain = 0
KHA2 150546Z 25011KT 13/M01 A2998 RMK A01 T01321013  RH  037%=      5-min Rain = 0
KHA2 150547Z 25011KT 13/M01 A2998 RMK A01 T01331012  RH  037%=      5-min Rain = 0
KHA2 150548Z 26011KT 13/M01 A2998 RMK A01 T01341012  RH  036%=      5-min Rain = 0
KHA2 150549Z 26011KT 14/M01 A2998 RMK A01 T01361010  RH  037%=      5-min Rain = 0
KHA2 150550Z 26011KT 14/M01 A2998 RMK A01 T01371009  RH  036%=      5-min Rain = 0
KHA2 150551Z 26011KT 14/M01 A2998 RMK A01 T01371009  RH  037%=      5-min Rain = 0
KHA2 150552Z 26011KT 14/M01 A2998 RMK A01 T01381008  RH  037%=      5-min Rain = 0
KHA2 150553Z 26010KT 14/M01 A2998 RMK A01 T01381008  RH  037%=      5-min Rain = 0
KHA2 150554Z 26011KT 14/M01 A2998 RMK A01 T01381007  RH  037%=      5-min Rain = 0
KHA2 150555Z 26010KT 14/M01 A2998 RMK A01 T01371007  RH  037%=      5-min Rain = 0
KHA2 150556Z 26010KT 14/M01 A2998 RMK A01 T01371005  RH  037%=      5-min Rain = 0
KHA2 150557Z 26010KT 14/M01 A2998 RMK A01 T01371005  RH  038%=      5-min Rain = 0
KHA2 150558Z 25010KT 14/M00 A2998 RMK A01 T01381002  RH  038%=      5-min Rain = 0
KHA2 150559Z 25010KT 14/M00 A2998 RMK A01 T01381002  RH  038%=      5-min Rain = 0

Page generated in 0.0352 seconds.